| time (UTC) | temp F | wind direction | speed MPH | gust MPH | rain 1hr in | rain 24hr in | rain mn in | humidity % | barometer mb |
| 20260902024053 | 69 | 23 | 1.0 | 5.0 | 0.00 | 0.01 | 0.00 | 100 | 1014.9 |
| 20260902023852 | 69 | 28 | 0.0 | 5.0 | 0.00 | 0.01 | 0.00 | 100 | 1014.9 |
| 20260902023652 | 69 | 28 | 0.0 | 5.0 | 0.00 | 0.01 | 0.00 | 100 | 1014.8 |
| 20260902023452 | 69 | 29 | 1.0 | 5.0 | 0.00 | 0.01 | 0.00 | 100 | 1014.8 |
| 20260902023252 | 69 | 52 | 1.0 | 5.0 | 0.00 | 0.01 | 0.00 | 100 | 1014.8 |
| 20260902023051 | 69 | 302 | 1.0 | 3.0 | 0.00 | 0.01 | 0.00 | 100 | 1014.8 |
| 20260902022851 | 69 | 356 | 0.0 | 3.0 | 0.00 | 0.01 | 0.00 | 100 | 1014.9 |
| 20260902022651 | 69 | 31 | 0.0 | 3.0 | 0.00 | 0.01 | 0.00 | 100 | 1014.8 |
| 20260902022450 | 69 | 41 | 0.0 | 3.0 | 0.00 | 0.01 | 0.00 | 100 | 1014.9 |
| 20260902022250 | 69 | 31 | 0.0 | 3.0 | 0.00 | 0.01 | 0.00 | 100 | 1014.9 |
| 20260902022050 | 69 | 17 | 1.0 | 3.0 | 0.00 | 0.01 | 0.00 | 100 | 1014.9 |
| 20260902021849 | 69 | 6 | 1.0 | 3.0 | 0.00 | 0.01 | 0.00 | 100 | 1014.9 |
| 20260902021649 | 69 | 6 | 0.0 | 3.0 | 0.00 | 0.01 | 0.00 | 100 | 1014.9 |
| 20260902021449 | 69 | 9 | 1.0 | 3.0 | 0.00 | 0.01 | 0.00 | 100 | 1014.8 |
| 20260902021248 | 69 | 2 | 1.0 | 3.0 | 0.00 | 0.01 | 0.00 | 100 | 1014.9 |
| 20260902021048 | 69 | 10 | 0.0 | 3.0 | 0.00 | 0.01 | 0.00 | 100 | 1014.7 |
| 20260902020848 | 69 | 26 | 0.0 | 3.0 | 0.00 | 0.01 | 0.00 | 100 | 1014.8 |
| 20260902020648 | 69 | 24 | 0.0 | 3.0 | 0.00 | 0.01 | 0.00 | 100 | 1014.8 |
| 20260902020447 | 69 | 19 | 0.0 | 3.0 | 0.00 | 0.01 | 0.00 | 99 | 1014.7 |
| 20260902020247 | 69 | 8 | 1.0 | 4.0 | 0.00 | 0.01 | 0.00 | 99 | 1014.8 |
| 20260902020047 | 69 | 4 | 0.0 | 4.0 | 0.00 | 0.01 | 0.00 | 99 | 1014.7 |
| 20260902015846 | 69 | 4 | 0.0 | 4.0 | 0.00 | 0.01 | 0.00 | 99 | 1014.8 |
| 20260902015646 | 69 | 4 | 0.0 | 4.0 | 0.00 | 0.01 | 0.00 | 99 | 1014.8 |
| 20260902015446 | 69 | 4 | 1.0 | 4.0 | 0.00 | 0.01 | 0.00 | 99 | 1014.9 |
| 20260902015245 | 69 | 3 | 0.0 | 3.0 | 0.00 | 0.01 | 0.00 | 99 | 1014.9 |
| 20260902015045 | 69 | 3 | 0.0 | 3.0 | 0.00 | 0.01 | 0.00 | 99 | 1014.9 |
| 20260902014845 | 69 | 356 | 0.0 | 3.0 | 0.00 | 0.01 | 0.00 | 99 | 1014.9 |
| 20260902014644 | 69 | 7 | 1.0 | 3.0 | 0.00 | 0.01 | 0.00 | 99 | 1014.9 |
| 20260902014444 | 69 | 23 | 1.0 | 3.0 | 0.00 | 0.01 | 0.00 | 99 | 1014.9 |
| 20260902014244 | 69 | 50 | 0.0 | 4.0 | 0.00 | 0.01 | 0.00 | 99 | 1014.9 |
| 20260902014043 | 69 | 53 | 0.0 | 4.0 | 0.00 | 0.01 | 0.00 | 99 | 1014.9 |
| 20260902013843 | 69 | 14 | 1.0 | 4.0 | 0.00 | 0.01 | 0.00 | 99 | 1014.9 |
| 20260902013643 | 69 | 29 | 1.0 | 4.0 | 0.00 | 0.01 | 0.00 | 98 | 1015.0 |
| 20260902013442 | 69 | 50 | 1.0 | 4.0 | 0.00 | 0.01 | 0.00 | 98 | 1014.9 |
| 20260902013242 | 69 | 20 | 1.0 | 4.0 | 0.00 | 0.01 | 0.00 | 98 | 1014.8 |
| 20260902013042 | 69 | 355 | 1.0 | 4.0 | 0.00 | 0.01 | 0.00 | 98 | 1014.8 |
| 20260902012842 | 70 | 336 | 0.0 | 4.0 | 0.00 | 0.01 | 0.00 | 98 | 1014.8 |
| 20260902012641 | 70 | 323 | 0.0 | 4.0 | 0.00 | 0.01 | 0.00 | 98 | 1014.9 |
| 20260902012441 | 70 | 349 | 0.0 | 4.0 | 0.00 | 0.01 | 0.00 | 98 | 1014.8 |
| 20260902012241 | 70 | 349 | 0.0 | 4.0 | 0.00 | 0.01 | 0.00 | 98 | 1014.8 |
| 20260902012040 | 70 | 359 | 1.0 | 4.0 | 0.00 | 0.01 | 0.00 | 98 | 1014.8 |
| 20260902011840 | 70 | 5 | 1.0 | 4.0 | 0.00 | 0.01 | 0.00 | 98 | 1014.8 |
| 20260902011640 | 70 | 1 | 1.0 | 4.0 | 0.00 | 0.01 | 0.00 | 98 | 1014.8 |
| 20260902011439 | 70 | 19 | 0.0 | 3.0 | 0.00 | 0.01 | 0.00 | 98 | 1014.8 |
| 20260902011239 | 70 | 55 | 0.0 | 3.0 | 0.00 | 0.01 | 0.00 | 98 | 1014.8 |
| 20260902011039 | 70 | 51 | 0.0 | 3.0 | 0.00 | 0.01 | 0.00 | 98 | 1014.8 |
| 20260902010838 | 70 | 27 | 0.0 | 3.0 | 0.00 | 0.01 | 0.00 | 97 | 1014.8 |
| 20260902010638 | 70 | 24 | 0.0 | 4.0 | 0.00 | 0.01 | 0.00 | 97 | 1014.8 |
| 20260902010438 | 70 | 5 | 0.0 | 4.0 | 0.00 | 0.01 | 0.00 | 97 | 1014.8 |
| 20260902010238 | 70 | 348 | 0.0 | 5.0 | 0.00 | 0.01 | 0.00 | 97 | 1014.7 |
| 20260902010037 | 70 | 5 | 0.0 | 5.0 | 0.00 | 0.01 | 0.00 | 97 | 1014.7 |
| 20260902005837 | 70 | 46 | 1.0 | 5.0 | 0.00 | 0.01 | 0.00 | 96 | 1014.7 |
| 20260902005637 | 71 | 57 | 2.0 | 5.0 | 0.00 | 0.01 | 0.00 | 96 | 1014.8 |
| 20260902005436 | 71 | 41 | 1.0 | 5.0 | 0.00 | 0.01 | 0.00 | 96 | 1014.7 |
| 20260902005236 | 71 | 18 | 1.0 | 4.0 | 0.00 | 0.01 | 0.00 | 96 | 1014.7 |
| 20260902005036 | 71 | 28 | 1.0 | 4.0 | 0.00 | 0.01 | 0.00 | 96 | 1014.6 |
| 20260902004835 | 71 | 41 | 1.0 | 4.0 | 0.00 | 0.01 | 0.00 | 96 | 1014.6 |
| 20260902004635 | 71 | 30 | 0.0 | 4.0 | 0.00 | 0.01 | 0.00 | 96 | 1014.5 |
| 20260902004435 | 71 | 31 | 1.0 | 4.0 | 0.00 | 0.01 | 0.00 | 96 | 1014.6 |
| 20260902004234 | 71 | 20 | 1.0 | 4.0 | 0.00 | 0.01 | 0.00 | 96 | 1014.5 |
| 20260902004034 | 71 | 27 | 0.0 | 4.0 | 0.00 | 0.01 | 0.00 | 96 | 1014.5 |
| 20260902003834 | 71 | 44 | 1.0 | 4.0 | 0.00 | 0.01 | 0.00 | 95 | 1014.4 |
| 20260902003633 | 72 | 50 | 1.0 | 4.0 | 0.00 | 0.01 | 0.00 | 95 | 1014.5 |
| 20260902003433 | 72 | 48 | 0.0 | 3.0 | 0.00 | 0.01 | 0.00 | 96 | 1014.5 |
| 20260902003233 | 72 | 39 | 0.0 | 3.0 | 0.00 | 0.01 | 0.00 | 95 | 1014.4 |
| 20260902003033 | 72 | 39 | 0.0 | 3.0 | 0.00 | 0.01 | 0.00 | 95 | 1014.5 |
| 20260902002832 | 72 | 37 | 0.0 | 3.0 | 0.00 | 0.01 | 0.00 | 95 | 1014.4 |
| 20260902002632 | 72 | 36 | 1.0 | 3.0 | 0.00 | 0.01 | 0.00 | 95 | 1014.4 |
| 20260902002432 | 72 | 35 | 1.0 | 3.0 | 0.00 | 0.01 | 0.00 | 95 | 1014.3 |
| 20260902002231 | 72 | 44 | 0.0 | 3.0 | 0.00 | 0.01 | 0.00 | 95 | 1014.3 |
| 20260902002031 | 72 | 44 | 1.0 | 3.0 | 0.00 | 0.01 | 0.00 | 95 | 1014.3 |
| 20260902001831 | 72 | 33 | 1.0 | 3.0 | 0.00 | 0.01 | 0.00 | 95 | 1014.2 |
| 20260902001630 | 72 | 49 | 1.0 | 3.0 | 0.00 | 0.01 | 0.00 | 94 | 1014.2 |
| 20260902001430 | 72 | 43 | 1.0 | 5.0 | 0.00 | 0.01 | 0.00 | 94 | 1014.3 |
| 20260902001230 | 72 | 41 | 1.0 | 5.0 | 0.00 | 0.01 | 0.00 | 94 | 1014.3 |
| 20260902001029 | 72 | 41 | 0.0 | 5.0 | 0.00 | 0.01 | 0.00 | 94 | 1014.2 |
| 20260902000829 | 72 | 49 | 1.0 | 5.0 | 0.00 | 0.01 | 0.00 | 94 | 1014.3 |
| 20260902000629 | 73 | 56 | 1.0 | 5.0 | 0.00 | 0.01 | 0.00 | 94 | 1014.3 |
| 20260902000429 | 73 | 56 | 1.0 | 5.0 | 0.00 | 0.01 | 0.00 | 94 | 1014.3 |
| 20260902000228 | 73 | 55 | 0.0 | 2.0 | 0.00 | 0.01 | 0.00 | 94 | 1014.4 |
| 20260902000028 | 73 | 48 | 0.0 | 3.0 | 0.00 | 0.01 | 0.00 | 94 | 1014.4 |
| 20260901235828 | 73 | 36 | 0.0 | 3.0 | 0.00 | 0.01 | 0.00 | 93 | 1014.4 |
| 20260901235627 | 73 | 35 | 0.0 | 3.0 | 0.00 | 0.01 | 0.00 | 93 | 1014.4 |
| 20260901235427 | 73 | 35 | 0.0 | 3.0 | 0.00 | 0.01 | 0.00 | 93 | 1014.4 |
| 20260901235227 | 73 | 49 | 1.0 | 3.0 | 0.00 | 0.01 | 0.00 | 93 | 1014.4 |
| 20260901235026 | 73 | 68 | 1.0 | 3.0 | 0.00 | 0.01 | 0.00 | 93 | 1014.4 |
| 20260901234826 | 73 | 50 | 1.0 | 3.0 | 0.00 | 0.01 | 0.00 | 93 | 1014.4 |
| 20260901234626 | 74 | 51 | 1.0 | 3.0 | 0.00 | 0.01 | 0.00 | 93 | 1014.4 |
| 20260901234426 | 74 | 79 | 0.0 | 2.0 | 0.00 | 0.01 | 0.00 | 93 | 1014.5 |
| 20260901234225 | 74 | 71 | 0.0 | 4.0 | 0.00 | 0.01 | 0.00 | 92 | 1014.4 |
| 20260901234025 | 74 | 31 | 0.0 | 5.0 | 0.00 | 0.01 | 0.00 | 92 | 1014.4 |
| 20260901233824 | 74 | 31 | 0.0 | 5.0 | 0.00 | 0.01 | 0.00 | 92 | 1014.4 |
| 20260901233624 | 74 | 57 | 1.0 | 5.0 | 0.00 | 0.01 | 0.00 | 92 | 1014.4 |
| 20260901233424 | 74 | 61 | 1.0 | 5.0 | 0.00 | 0.01 | 0.00 | 92 | 1014.4 |
| 20260901233223 | 74 | 22 | 1.0 | 5.0 | 0.00 | 0.01 | 0.00 | 92 | 1014.4 |
| 20260901233023 | 74 | 24 | 0.0 | 4.0 | 0.00 | 0.01 | 0.00 | 91 | 1014.3 |
| 20260901232823 | 74 | 67 | 1.0 | 3.0 | 0.00 | 0.01 | 0.00 | 91 | 1014.3 |
| 20260901232623 | 74 | 81 | 1.0 | 3.0 | 0.00 | 0.01 | 0.00 | 91 | 1014.3 |
| 20260901232422 | 74 | 53 | 1.0 | 3.0 | 0.00 | 0.01 | 0.00 | 91 | 1014.3 |
| 20260901232222 | 75 | 31 | 1.0 | 3.0 | 0.00 | 0.01 | 0.00 | 91 | 1014.3 |
| 20260901232022 | 75 | 24 | 0.0 | 3.0 | 0.00 | 0.01 | 0.00 | 91 | 1014.4 |
| 20260901231821 | 75 | 25 | 1.0 | 3.0 | 0.00 | 0.01 | 0.00 | 90 | 1014.4 |
| 20260901231621 | 75 | 57 | 1.0 | 2.0 | 0.00 | 0.01 | 0.00 | 90 | 1014.4 |
| 20260901231421 | 75 | 79 | 0.0 | 2.0 | 0.00 | 0.01 | 0.00 | 90 | 1014.4 |
| 20260901231220 | 75 | 45 | 0.0 | 4.0 | 0.00 | 0.01 | 0.00 | 91 | 1014.4 |
| 20260901231020 | 75 | 31 | 0.0 | 4.0 | 0.00 | 0.01 | 0.00 | 91 | 1014.4 |
| 20260901230820 | 75 | 32 | 0.0 | 4.0 | 0.00 | 0.01 | 0.00 | 90 | 1014.4 |
| 20260901230619 | 75 | 27 | 1.0 | 4.0 | 0.00 | 0.01 | 0.00 | 90 | 1014.4 |
| 20260901230419 | 75 | 13 | 1.0 | 4.0 | 0.00 | 0.01 | 0.00 | 90 | 1014.4 |
| 20260901230219 | 75 | 18 | 1.0 | 3.0 | 0.00 | 0.01 | 0.00 | 89 | 1014.4 |
| 20260901230019 | 76 | 56 | 1.0 | 3.0 | 0.00 | 0.01 | 0.00 | 89 | 1014.4 |
| 20260901225818 | 76 | 53 | 1.0 | 3.0 | 0.00 | 0.01 | 0.00 | 89 | 1014.5 |
| 20260901225618 | 76 | 59 | 0.0 | 3.0 | 0.00 | 0.01 | 0.00 | 89 | 1014.4 |
| 20260901225418 | 76 | 70 | 0.0 | 4.0 | 0.00 | 0.01 | 0.00 | 89 | 1014.4 |
| 20260901225217 | 76 | 53 | 0.0 | 4.0 | 0.00 | 0.01 | 0.00 | 89 | 1014.5 |
| 20260901225017 | 76 | 51 | 0.0 | 4.0 | 0.00 | 0.01 | 0.00 | 89 | 1014.4 |
| 20260901224817 | 76 | 56 | 1.0 | 4.0 | 0.00 | 0.01 | 0.00 | 89 | 1014.4 |
| 20260901224616 | 76 | 65 | 1.0 | 2.0 | 0.00 | 0.01 | 0.00 | 89 | 1014.3 |
| 20260901224416 | 76 | 63 | 0.0 | 2.0 | 0.00 | 0.01 | 0.00 | 88 | 1014.4 |
| 20260901224216 | 76 | 44 | 0.0 | 2.0 | 0.00 | 0.01 | 0.00 | 88 | 1014.4 |
| 20260901224015 | 76 | 12 | 0.0 | 2.0 | 0.00 | 0.01 | 0.00 | 89 | 1014.5 |
| 20260901223815 | 76 | 12 | 0.0 | 2.0 | 0.00 | 0.01 | 0.00 | 89 | 1014.4 |
| 20260901223615 | 76 | 12 | 1.0 | 2.0 | 0.00 | 0.01 | 0.00 | 88 | 1014.5 |
| 20260901223414 | 76 | 11 | 0.0 | 2.0 | 0.00 | 0.01 | 0.00 | 88 | 1014.5 |
| 20260901223214 | 76 | 14 | 0.0 | 4.0 | 0.00 | 0.01 | 0.00 | 88 | 1014.5 |
| 20260901223014 | 76 | 41 | 0.0 | 5.0 | 0.00 | 0.01 | 0.00 | 88 | 1014.5 |
| 20260901222814 | 76 | 22 | 0.0 | 5.0 | 0.00 | 0.01 | 0.00 | 87 | 1014.5 |
| 20260901222613 | 77 | 10 | 1.0 | 5.0 | 0.00 | 0.01 | 0.00 | 87 | 1014.5 |
| 20260901222413 | 77 | 29 | 2.0 | 5.0 | 0.00 | 0.01 | 0.00 | 87 | 1014.5 |
| 20260901222213 | 77 | 57 | 2.0 | 5.0 | 0.00 | 0.01 | 0.00 | 86 | 1014.5 |
| 20260901222012 | 77 | 39 | 1.0 | 5.0 | 0.00 | 0.01 | 0.00 | 86 | 1014.5 |
| 20260901221812 | 78 | 21 | 2.0 | 6.0 | 0.00 | 0.01 | 0.00 | 85 | 1014.5 |
| 20260901221612 | 78 | 56 | 2.0 | 6.0 | 0.00 | 0.01 | 0.00 | 84 | 1014.6 |
| 20260901221411 | 79 | 54 | 2.0 | 6.0 | 0.00 | 0.01 | 0.00 | 84 | 1014.6 |
| 20260901221211 | 79 | 28 | 3.0 | 6.0 | 0.00 | 0.01 | 0.00 | 84 | 1014.6 |
| 20260901221011 | 80 | 30 | 2.0 | 7.0 | 0.00 | 0.01 | 0.00 | 82 | 1014.6 |
| 20260901220810 | 80 | 45 | 2.0 | 8.0 | 0.00 | 0.01 | 0.00 | 82 | 1014.6 |
| 20260901220610 | 81 | 34 | 1.0 | 8.0 | 0.00 | 0.01 | 0.00 | 82 | 1014.6 |
| 20260901220410 | 81 | 30 | 2.0 | 8.0 | 0.00 | 0.01 | 0.00 | 82 | 1014.6 |
| 20260901220209 | 81 | 41 | 3.0 | 8.0 | 0.00 | 0.01 | 0.00 | 81 | 1014.6 |
| 20260901220009 | 82 | 30 | 2.0 | 7.0 | 0.00 | 0.01 | 0.00 | 80 | 1014.5 |
| 20260901215809 | 82 | 30 | 2.0 | 7.0 | 0.00 | 0.01 | 0.00 | 80 | 1014.6 |
| 20260901215609 | 82 | 37 | 3.0 | 6.0 | 0.00 | 0.01 | 0.00 | 80 | 1014.5 |
| 20260901215408 | 82 | 70 | 2.0 | 6.0 | 0.00 | 0.01 | 0.00 | 78 | 1014.5 |
| 20260901215208 | 83 | 71 | 2.0 | 6.0 | 0.00 | 0.01 | 0.00 | 78 | 1014.5 |
| 20260901215008 | 83 | 36 | 3.0 | 6.0 | 0.00 | 0.01 | 0.00 | 78 | 1014.5 |
| 20260901214807 | 84 | 31 | 2.0 | 5.0 | 0.00 | 0.01 | 0.00 | 77 | 1014.4 |
| 20260901214607 | 84 | 46 | 1.0 | 4.0 | 0.00 | 0.01 | 0.00 | 77 | 1014.3 |
| 20260901214407 | 84 | 68 | 1.0 | 4.0 | 0.00 | 0.01 | 0.00 | 77 | 1014.4 |
| 20260901213906 | 84 | 39 | 2.0 | 6.0 | 0.00 | 0.01 | 0.00 | 76 | 1014.3 |
| 20260901213706 | 84 | 39 | 0.0 | 6.0 | 0.00 | 0.01 | 0.00 | 76 | 1014.3 |
| 20260901213505 | 84 | 80 | 0.0 | 6.0 | 0.00 | 0.01 | 0.00 | 77 | 1014.3 |
| 20260901213305 | 84 | 70 | 1.0 | 6.0 | 0.00 | 0.01 | 0.00 | 77 | 1014.3 |
| 20260901213105 | 84 | 33 | 1.0 | 6.0 | 0.00 | 0.01 | 0.00 | 76 | 1014.3 |
| 20260901212904 | 84 | 20 | 1.0 | 5.0 | 0.00 | 0.01 | 0.00 | 77 | 1014.3 |
| 20260901212704 | 84 | 24 | 1.0 | 5.0 | 0.00 | 0.01 | 0.00 | 77 | 1014.3 |
| 20260901212504 | 84 | 33 | 1.0 | 6.0 | 0.00 | 0.01 | 0.00 | 77 | 1014.2 |
| 20260901212306 | 84 | 22 | 2.0 | 6.0 | 0.00 | 0.01 | 0.00 | 77 | 1014.2 |
| 20260901212103 | 84 | 50 | 2.0 | 6.0 | 0.00 | 0.01 | 0.00 | 77 | 1014.2 |
| 20260901211903 | 84 | 38 | 3.0 | 6.0 | 0.00 | 0.01 | 0.00 | 76 | 1014.1 |
| 20260901211702 | 84 | 38 | 3.0 | 6.0 | 0.00 | 0.01 | 0.00 | 76 | 1014.3 |
| 20260901211502 | 85 | 29 | 2.0 | 4.0 | 0.00 | 0.01 | 0.00 | 76 | 1014.2 |
| 20260901211302 | 85 | 53 | 2.0 | 4.0 | 0.00 | 0.01 | 0.00 | 75 | 1014.2 |
| 20260901211102 | 85 | 36 | 2.0 | 4.0 | 0.00 | 0.01 | 0.00 | 74 | 1014.1 |
| 20260901210901 | 86 | 35 | 2.0 | 4.0 | 0.00 | 0.01 | 0.00 | 74 | 1014.2 |
| 20260901210701 | 86 | 41 | 1.0 | 4.0 | 0.00 | 0.01 | 0.00 | 74 | 1014.1 |
| 20260901210501 | 86 | 16 | 1.0 | 3.0 | 0.00 | 0.01 | 0.00 | 74 | 1014.1 |
| 20260901210300 | 86 | 2 | 1.0 | 3.0 | 0.00 | 0.01 | 0.00 | 73 | 1014.2 |
| 20260901210100 | 86 | 4 | 2.0 | 3.0 | 0.00 | 0.01 | 0.00 | 73 | 1014.2 |
| 20260901205900 | 86 | 10 | 1.0 | 3.0 | 0.00 | 0.02 | 0.00 | 73 | 1014.2 |
| 20260901205659 | 86 | 15 | 1.0 | 3.0 | 0.00 | 0.02 | 0.00 | 75 | 1014.1 |
| 20260901205459 | 86 | 21 | 1.0 | 3.0 | 0.00 | 0.02 | 0.00 | 74 | 1014.1 |
| 20260901205259 | 86 | 26 | 1.0 | 3.0 | 0.00 | 0.02 | 0.00 | 74 | 1014.1 |
| 20260901205058 | 86 | 22 | 1.0 | 3.0 | 0.00 | 0.02 | 0.00 | 74 | 1014.1 |
| 20260901204858 | 86 | 11 | 1.0 | 5.0 | 0.00 | 0.02 | 0.00 | 74 | 1014.1 |
| 20260901204658 | 86 | 39 | 2.0 | 5.0 | 0.00 | 0.02 | 0.00 | 75 | 1014.0 |
| 20260901204457 | 85 | 57 | 2.0 | 5.0 | 0.00 | 0.02 | 0.00 | 74 | 1014.1 |
| 20260901204257 | 85 | 60 | 2.0 | 5.0 | 0.00 | 0.02 | 0.00 | 75 | 1014.1 |
| 20260901204057 | 85 | 29 | 3.0 | 5.0 | 0.00 | 0.02 | 0.00 | 74 | 1013.9 |
| 20260901203857 | 86 | 16 | 2.0 | 5.0 | 0.00 | 0.02 | 0.00 | 74 | 1014.0 |
| 20260901203656 | 86 | 47 | 2.0 | 3.0 | 0.00 | 0.02 | 0.00 | 73 | 1013.9 |
| 20260901203456 | 87 | 58 | 0.0 | 3.0 | 0.00 | 0.02 | 0.00 | 72 | 1013.9 |
| 20260901203256 | 87 | 31 | 1.0 | 3.0 | 0.00 | 0.02 | 0.00 | 73 | 1014.0 |
| 20260901203055 | 87 | 50 | 0.0 | 3.0 | 0.00 | 0.02 | 0.00 | 72 | 1014.0 |
| 20260901202855 | 87 | 35 | 0.0 | 2.0 | 0.00 | 0.02 | 0.00 | 73 | 1014.0 |
| 20260901202655 | 87 | 274 | 0.0 | 3.0 | 0.00 | 0.02 | 0.00 | 72 | 1014.0 |
| 20260901202454 | 87 | 244 | 1.0 | 3.0 | 0.00 | 0.02 | 0.00 | 72 | 1014.0 |
| 20260901202254 | 88 | 346 | 1.0 | 3.0 | 0.00 | 0.02 | 0.00 | 72 | 1014.0 |
| 20260901202054 | 88 | 298 | 1.0 | 3.0 | 0.00 | 0.02 | 0.00 | 72 | 1014.0 |
| 20260901201853 | 88 | 23 | 2.0 | 3.0 | 0.00 | 0.02 | 0.00 | 71 | 1014.0 |
| 20260901201653 | 88 | 29 | 1.0 | 3.0 | 0.00 | 0.02 | 0.00 | 73 | 1014.0 |
| 20260901201453 | 88 | 46 | 2.0 | 4.0 | 0.00 | 0.02 | 0.00 | 72 | 1014.0 |
| 20260901201253 | 87 | 64 | 1.0 | 4.0 | 0.00 | 0.02 | 0.00 | 72 | 1014.1 |
| 20260901201052 | 87 | 48 | 2.0 | 4.0 | 0.00 | 0.02 | 0.00 | 72 | 1014.1 |
| 20260901200852 | 87 | 40 | 2.0 | 4.0 | 0.00 | 0.02 | 0.00 | 73 | 1014.1 |
| 20260901200652 | 87 | 26 | 1.0 | 7.0 | 0.00 | 0.02 | 0.00 | 73 | 1014.1 |
| 20260901200451 | 87 | 307 | 1.0 | 7.0 | 0.00 | 0.02 | 0.00 | 73 | 1014.1 |
| 20260901200251 | 87 | 22 | 2.0 | 7.0 | 0.00 | 0.02 | 0.00 | 73 | 1014.1 |
| 20260901200051 | 87 | 48 | 3.0 | 7.0 | 0.00 | 0.02 | 0.00 | 74 | 1014.1 |
| 20260901195850 | 86 | 37 | 2.0 | 7.0 | 0.00 | 0.02 | 0.00 | 74 | 1014.1 |
| 20260901195650 | 86 | 23 | 2.0 | 6.0 | 0.00 | 0.02 | 0.00 | 74 | 1014.2 |
| 20260901195450 | 86 | 39 | 2.0 | 6.0 | 0.00 | 0.02 | 0.00 | 74 | 1014.2 |
| 20260901195249 | 86 | 40 | 2.0 | 6.0 | 0.00 | 0.02 | 0.00 | 75 | 1014.2 |
| 20260901195049 | 85 | 45 | 2.0 | 5.0 | 0.00 | 0.02 | 0.00 | 76 | 1014.3 |
| 20260901194849 | 84 | 49 | 2.0 | 5.0 | 0.00 | 0.02 | 0.00 | 76 | 1014.3 |
| 20260901194648 | 84 | 58 | 2.0 | 5.0 | 0.00 | 0.02 | 0.00 | 76 | 1014.3 |
| 20260901194448 | 85 | 73 | 2.0 | 5.0 | 0.00 | 0.02 | 0.00 | 76 | 1014.4 |
| 20260901194248 | 85 | 48 | 1.0 | 5.0 | 0.00 | 0.02 | 0.00 | 76 | 1014.3 |
| 20260901194048 | 85 | 23 | 1.0 | 5.0 | 0.00 | 0.02 | 0.00 | 77 | 1014.3 |
| 20260901193847 | 85 | 16 | 1.0 | 6.0 | 0.00 | 0.02 | 0.00 | 77 | 1014.2 |
| 20260901193647 | 84 | 4 | 1.0 | 6.0 | 0.00 | 0.02 | 0.00 | 77 | 1014.2 |
| 20260901193447 | 84 | 43 | 1.0 | 6.0 | 0.00 | 0.02 | 0.00 | 77 | 1014.3 |
| 20260901193246 | 84 | 39 | 2.0 | 6.0 | 0.00 | 0.02 | 0.00 | 77 | 1014.2 |
| 20260901193046 | 84 | 18 | 1.0 | 6.0 | 0.00 | 0.02 | 0.00 | 76 | 1014.2 |
| 20260901192846 | 85 | 29 | 1.0 | 6.0 | 0.00 | 0.02 | 0.00 | 76 | 1014.3 |
| 20260901192645 | 85 | 53 | 2.0 | 6.0 | 0.00 | 0.02 | 0.00 | 76 | 1014.3 |
| 20260901192445 | 85 | 44 | 2.0 | 6.0 | 0.00 | 0.02 | 0.00 | 77 | 1014.3 |
| 20260901192245 | 85 | 29 | 2.0 | 6.0 | 0.00 | 0.02 | 0.00 | 77 | 1014.3 |
| 20260901192044 | 85 | 14 | 2.0 | 6.0 | 0.00 | 0.02 | 0.00 | 76 | 1014.3 |
| 20260901191844 | 85 | 33 | 2.0 | 5.0 | 0.00 | 0.02 | 0.00 | 76 | 1014.4 |
| 20260901191644 | 85 | 48 | 2.0 | 5.0 | 0.00 | 0.02 | 0.00 | 75 | 1014.4 |
| 20260901191443 | 85 | 28 | 2.0 | 5.0 | 0.00 | 0.02 | 0.00 | 75 | 1014.4 |
| 20260901191243 | 86 | 14 | 2.0 | 5.0 | 0.00 | 0.02 | 0.00 | 75 | 1014.5 |
| 20260901191043 | 86 | 10 | 2.0 | 5.0 | 0.00 | 0.02 | 0.00 | 74 | 1014.4 |
| 20260901190843 | 87 | 21 | 2.0 | 5.0 | 0.00 | 0.02 | 0.00 | 73 | 1014.4 |
| 20260901190642 | 88 | 38 | 1.0 | 5.0 | 0.00 | 0.02 | 0.00 | 72 | 1014.3 |
| 20260901190442 | 89 | 31 | 2.0 | 5.0 | 0.00 | 0.02 | 0.00 | 72 | 1014.3 |
| 20260901190242 | 89 | 237 | 0.0 | 3.0 | 0.00 | 0.02 | 0.00 | 72 | 1014.4 |
| 20260901190041 | 90 | 228 | 1.0 | 3.0 | 0.00 | 0.02 | 0.00 | 72 | 1014.3 |
| 20260901185841 | 90 | 223 | 1.0 | 3.0 | 0.00 | 0.03 | 0.00 | 71 | 1014.3 |
| 20260901185641 | 89 | 162 | 0.0 | 2.0 | 0.00 | 0.03 | 0.00 | 72 | 1014.2 |
| 20260901185440 | 89 | 136 | 0.0 | 2.0 | 0.00 | 0.03 | 0.00 | 72 | 1014.2 |
| 20260901185240 | 89 | 136 | 0.0 | 2.0 | 0.00 | 0.03 | 0.00 | 72 | 1014.2 |
| 20260901185040 | 89 | 129 | 0.0 | 4.0 | 0.00 | 0.03 | 0.00 | 72 | 1014.2 |
| 20260901184839 | 89 | 18 | 0.0 | 4.0 | 0.00 | 0.03 | 0.00 | 73 | 1014.2 |
| 20260901184639 | 89 | 5 | 0.0 | 4.0 | 0.00 | 0.03 | 0.00 | 72 | 1014.2 |
| 20260901184439 | 88 | 359 | 1.0 | 4.0 | 0.00 | 0.03 | 0.00 | 73 | 1014.2 |
| 20260901184239 | 89 | 58 | 1.0 | 4.0 | 0.00 | 0.03 | 0.00 | 72 | 1014.2 |
| 20260901184038 | 89 | 15 | 0.0 | 4.0 | 0.00 | 0.03 | 0.00 | 72 | 1014.2 |
| 20260901183838 | 89 | 15 | 0.0 | 2.0 | 0.00 | 0.03 | 0.00 | 72 | 1014.2 |
| 20260901183638 | 89 | 15 | 1.0 | 2.0 | 0.00 | 0.03 | 0.00 | 72 | 1014.2 |
| 20260901183437 | 89 | 15 | 1.0 | 2.0 | 0.00 | 0.03 | 0.00 | 72 | 1014.2 |
| 20260901183237 | 89 | 17 | 1.0 | 4.0 | 0.00 | 0.03 | 0.00 | 73 | 1014.3 |
| 20260901183037 | 88 | 8 | 1.0 | 5.0 | 0.00 | 0.03 | 0.00 | 73 | 1014.2 |
| 20260901182836 | 88 | 7 | 0.0 | 5.0 | 0.00 | 0.03 | 0.00 | 74 | 1014.2 |
| 20260901182636 | 88 | 46 | 0.0 | 5.0 | 0.00 | 0.03 | 0.00 | 74 | 1014.2 |
| 20260901182436 | 88 | 39 | 1.0 | 5.0 | 0.00 | 0.03 | 0.00 | 74 | 1014.3 |
| 20260901182235 | 88 | 22 | 2.0 | 5.0 | 0.00 | 0.03 | 0.00 | 73 | 1014.3 |
| 20260901182035 | 88 | 9 | 2.0 | 4.0 | 0.00 | 0.03 | 0.00 | 72 | 1014.3 |
| 20260901181835 | 88 | 350 | 1.0 | 3.0 | 0.00 | 0.03 | 0.00 | 72 | 1014.3 |
| 20260901181634 | 89 | 347 | 1.0 | 2.0 | 0.00 | 0.03 | 0.00 | 72 | 1014.4 |
| 20260901181434 | 89 | 327 | 1.0 | 2.0 | 0.00 | 0.03 | 0.00 | 71 | 1014.5 |
| 20260901181234 | 89 | 322 | 1.0 | 2.0 | 0.00 | 0.03 | 0.00 | 73 | 1014.4 |
| 20260901181033 | 88 | 244 | 1.0 | 2.0 | 0.00 | 0.03 | 0.00 | 73 | 1014.4 |
| 20260901180833 | 88 | 129 | 1.0 | 2.0 | 0.00 | 0.03 | 0.00 | 75 | 1014.4 |
| 20260901180633 | 87 | 252 | 0.0 | 2.0 | 0.00 | 0.03 | 0.00 | 75 | 1014.5 |
| 20260901180433 | 87 | 253 | 0.0 | 2.0 | 0.00 | 0.03 | 0.00 | 75 | 1014.5 |
| 20260901180232 | 86 | 294 | 0.0 | 3.0 | 0.00 | 0.03 | 0.00 | 75 | 1014.5 |
| 20260901180032 | 86 | 328 | 0.0 | 4.0 | 0.00 | 0.03 | 0.00 | 76 | 1014.5 |
| 20260901175832 | 86 | 254 | 1.0 | 4.0 | 0.00 | 0.03 | 0.00 | 76 | 1014.5 |
| 20260901175631 | 86 | 222 | 1.0 | 4.0 | 0.00 | 0.03 | 0.00 | 77 | 1014.4 |
| 20260901175431 | 86 | 186 | 1.0 | 5.0 | 0.00 | 0.03 | 0.00 | 77 | 1014.4 |
| 20260901175231 | 85 | 207 | 1.0 | 5.0 | 0.00 | 0.03 | 0.00 | 78 | 1014.3 |
| 20260901175030 | 85 | 154 | 1.0 | 5.0 | 0.00 | 0.03 | 0.00 | 78 | 1014.4 |
| 20260901174830 | 85 | 196 | 1.0 | 5.0 | 0.00 | 0.03 | 0.00 | 78 | 1014.3 |
| 20260901174630 | 85 | 207 | 1.0 | 5.0 | 0.00 | 0.03 | 0.00 | 78 | 1014.3 |
| 20260901174429 | 85 | 211 | 1.0 | 5.0 | 0.00 | 0.03 | 0.00 | 77 | 1014.2 |
| 20260901174229 | 85 | 209 | 1.0 | 5.0 | 0.00 | 0.03 | 0.00 | 77 | 1014.3 |
| 20260901174029 | 85 | 206 | 2.0 | 5.0 | 0.00 | 0.03 | 0.00 | 78 | 1014.2 |
| 20260901173829 | 85 | 206 | 2.0 | 5.0 | 0.00 | 0.03 | 0.00 | 77 | 1014.2 |
| 20260901173628 | 85 | 187 | 1.0 | 4.0 | 0.00 | 0.03 | 0.00 | 77 | 1014.1 |
| 20260901173428 | 85 | 184 | 1.0 | 4.0 | 0.00 | 0.03 | 0.00 | 77 | 1014.2 |
| 20260901173228 | 85 | 226 | 1.0 | 7.0 | 0.00 | 0.03 | 0.00 | 77 | 1014.2 |
| 20260901173027 | 85 | 217 | 1.0 | 7.0 | 0.00 | 0.03 | 0.00 | 77 | 1014.1 |
| 20260901172827 | 85 | 188 | 1.0 | 7.0 | 0.00 | 0.03 | 0.00 | 78 | 1014.1 |
| 20260901172627 | 85 | 199 | 3.0 | 7.0 | 0.00 | 0.03 | 0.00 | 77 | 1014.0 |
| 20260901172426 | 85 | 220 | 2.0 | 7.0 | 0.00 | 0.03 | 0.00 | 77 | 1014.0 |
| 20260901172226 | 85 | 226 | 1.0 | 4.0 | 0.00 | 0.03 | 0.00 | 76 | 1014.1 |
| 20260901172026 | 85 | 215 | 2.0 | 4.0 | 0.00 | 0.03 | 0.00 | 76 | 1014.0 |
| 20260901171825 | 86 | 209 | 2.0 | 4.0 | 0.00 | 0.03 | 0.00 | 76 | 1014.0 |
| 20260901171625 | 86 | 198 | 1.0 | 4.0 | 0.00 | 0.03 | 0.00 | 76 | 1014.1 |
| 20260901171425 | 86 | 219 | 1.0 | 3.0 | 0.00 | 0.03 | 0.00 | 76 | 1014.1 |
| 20260901171224 | 86 | 216 | 1.0 | 3.0 | 0.00 | 0.03 | 0.00 | 76 | 1014.1 |
| 20260901171024 | 86 | 221 | 1.0 | 4.0 | 0.00 | 0.03 | 0.00 | 76 | 1014.1 |
| 20260901170824 | 86 | 234 | 1.0 | 4.0 | 0.00 | 0.03 | 0.00 | 76 | 1014.1 |
| 20260901170624 | 86 | 187 | 1.0 | 4.0 | 0.00 | 0.03 | 0.00 | 75 | 1014.1 |
| 20260901170423 | 86 | 208 | 2.0 | 4.0 | 0.00 | 0.03 | 0.00 | 75 | 1014.1 |
| 20260901170223 | 86 | 195 | 2.0 | 4.0 | 0.00 | 0.03 | 0.00 | 75 | 1014.1 |
| 20260901170023 | 86 | 217 | 1.0 | 4.0 | 0.00 | 0.03 | 0.00 | 76 | 1014.1 |
| 20260901165822 | 86 | 182 | 1.0 | 4.0 | 0.00 | 0.03 | 0.00 | 76 | 1014.0 |
| 20260901165622 | 86 | 191 | 2.0 | 4.0 | 0.00 | 0.03 | 0.00 | 75 | 1014.1 |
| 20260901165422 | 86 | 171 | 1.0 | 5.0 | 0.00 | 0.03 | 0.00 | 75 | 1014.0 |
| 20260901165221 | 86 | 0 | 0.0 | 5.0 | 0.00 | 0.03 | 0.00 | 75 | 1014.1 |
| 20260901165021 | 86 | 222 | 0.0 | 5.0 | 0.00 | 0.03 | 0.00 | 75 | 1014.1 |
| 20260901164821 | 86 | 231 | 2.0 | 5.0 | 0.00 | 0.03 | 0.00 | 75 | 1014.0 |
| 20260901164620 | 86 | 184 | 2.0 | 5.0 | 0.00 | 0.03 | 0.00 | 74 | 1013.9 |
| 20260901164420 | 86 | 159 | 1.0 | 5.0 | 0.00 | 0.03 | 0.00 | 75 | 1014.0 |
| 20260901164220 | 86 | 214 | 1.0 | 5.0 | 0.00 | 0.03 | 0.00 | 75 | 1013.9 |
| 20260901164019 | 86 | 242 | 1.0 | 5.0 | 0.00 | 0.03 | 0.00 | 75 | 1013.9 |
| 20260901163819 | 86 | 219 | 2.0 | 5.0 | 0.00 | 0.03 | 0.00 | 74 | 1013.8 |
| 20260901163619 | 87 | 232 | 1.0 | 4.0 | 0.00 | 0.03 | 0.00 | 75 | 1013.9 |
| 20260901163419 | 87 | 324 | 1.0 | 3.0 | 0.00 | 0.03 | 0.00 | 75 | 1013.8 |
| 20260901163218 | 87 | 248 | 1.0 | 4.0 | 0.00 | 0.03 | 0.00 | 75 | 1013.8 |
| 20260901163018 | 86 | 260 | 1.0 | 4.0 | 0.00 | 0.03 | 0.00 | 74 | 1013.8 |
| 20260901162818 | 86 | 344 | 1.0 | 5.0 | 0.00 | 0.03 | 0.00 | 75 | 1013.7 |
| 20260901162617 | 86 | 173 | 2.0 | 5.0 | 0.00 | 0.03 | 0.00 | 76 | 1013.7 |
| 20260901162417 | 86 | 222 | 2.0 | 5.0 | 0.00 | 0.03 | 0.00 | 76 | 1013.8 |
| 20260901162217 | 86 | 181 | 2.0 | 5.0 | 0.00 | 0.03 | 0.00 | 76 | 1013.9 |
| 20260901162016 | 86 | 206 | 2.0 | 5.0 | 0.00 | 0.03 | 0.00 | 76 | 1013.9 |
| 20260901161816 | 86 | 210 | 2.0 | 5.0 | 0.00 | 0.03 | 0.00 | 76 | 1013.9 |
| 20260901161616 | 86 | 185 | 2.0 | 5.0 | 0.00 | 0.03 | 0.00 | 77 | 1013.8 |
| 20260901161415 | 86 | 195 | 2.0 | 8.0 | 0.00 | 0.03 | 0.00 | 77 | 1013.8 |
| 20260901161215 | 85 | 204 | 1.0 | 8.0 | 0.00 | 0.03 | 0.00 | 77 | 1013.9 |
| 20260901161015 | 85 | 185 | 1.0 | 8.0 | 0.00 | 0.03 | 0.00 | 77 | 1013.9 |
| 20260901160814 | 86 | 164 | 2.0 | 8.0 | 0.00 | 0.03 | 0.00 | 76 | 1013.9 |
| 20260901160614 | 86 | 208 | 2.0 | 8.0 | 0.00 | 0.03 | 0.00 | 77 | 1013.9 |
| 20260901160414 | 86 | 122 | 0.0 | 5.0 | 0.00 | 0.03 | 0.00 | 78 | 1014.0 |
| 20260901160214 | 85 | 169 | 0.0 | 5.0 | 0.00 | 0.03 | 0.00 | 77 | 1014.0 |
| 20260901160013 | 85 | 207 | 1.0 | 5.0 | 0.00 | 0.03 | 0.00 | 78 | 1014.1 |
| 20260901155813 | 85 | 218 | 3.0 | 5.0 | 0.00 | 0.13 | 0.00 | 77 | 1014.2 |
| 20260901155613 | 86 | 226 | 3.0 | 5.0 | 0.00 | 0.13 | 0.00 | 77 | 1014.1 |
| 20260901155412 | 86 | 227 | 2.0 | 5.0 | 0.00 | 0.13 | 0.00 | 77 | 1014.1 |
| 20260901155212 | 86 | 178 | 1.0 | 4.0 | 0.00 | 0.13 | 0.00 | 78 | 1014.1 |
| 20260901155012 | 85 | 180 | 1.0 | 4.0 | 0.00 | 0.13 | 0.00 | 77 | 1014.1 |
| 20260901154811 | 85 | 240 | 1.0 | 6.0 | 0.00 | 0.13 | 0.00 | 77 | 1014.1 |
| 20260901154611 | 85 | 250 | 2.0 | 6.0 | 0.00 | 0.13 | 0.00 | 78 | 1014.1 |
| 20260901154411 | 85 | 286 | 1.0 | 6.0 | 0.00 | 0.13 | 0.00 | 78 | 1014.1 |
| 20260901154210 | 85 | 271 | 1.0 | 6.0 | 0.00 | 0.13 | 0.00 | 78 | 1014.0 |
| 20260901154010 | 85 | 215 | 2.0 | 6.0 | 0.00 | 0.13 | 0.00 | 78 | 1014.0 |
| 20260901153810 | 85 | 210 | 2.0 | 5.0 | 0.00 | 0.13 | 0.00 | 78 | 1014.1 |
| 20260901153609 | 85 | 182 | 2.0 | 5.0 | 0.00 | 0.13 | 0.00 | 78 | 1014.0 |
| 20260901153409 | 85 | 193 | 1.0 | 5.0 | 0.00 | 0.13 | 0.00 | 78 | 1014.1 |
| 20260901153209 | 85 | 198 | 2.0 | 5.0 | 0.00 | 0.13 | 0.00 | 78 | 1014.0 |
| 20260901153009 | 85 | 202 | 2.0 | 5.0 | 0.00 | 0.13 | 0.00 | 77 | 1014.1 |
| 20260901152808 | 85 | 214 | 2.0 | 5.0 | 0.00 | 0.13 | 0.00 | 77 | 1014.0 |
| 20260901152608 | 85 | 193 | 1.0 | 4.0 | 0.00 | 0.13 | 0.00 | 78 | 1014.0 |
| 20260901152408 | 84 | 220 | 0.0 | 4.0 | 0.00 | 0.13 | 0.00 | 78 | 1013.9 |
| 20260901152207 | 84 | 188 | 1.0 | 4.0 | 0.00 | 0.13 | 0.00 | 78 | 1013.9 |
| 20260901152007 | 84 | 222 | 2.0 | 4.0 | 0.00 | 0.13 | 0.00 | 78 | 1014.0 |
| 20260901151807 | 84 | 257 | 1.0 | 4.0 | 0.00 | 0.13 | 0.00 | 79 | 1014.0 |
| 20260901151606 | 84 | 225 | 1.0 | 4.0 | 0.00 | 0.13 | 0.00 | 79 | 1014.0 |
| 20260901151406 | 84 | 205 | 1.0 | 4.0 | 0.00 | 0.13 | 0.00 | 80 | 1014.1 |
| 20260901151206 | 84 | 218 | 1.0 | 4.0 | 0.00 | 0.13 | 0.00 | 79 | 1014.1 |
| 20260901151005 | 84 | 212 | 2.0 | 4.0 | 0.00 | 0.13 | 0.00 | 79 | 1014.1 |
| 20260901150805 | 84 | 235 | 0.0 | 4.0 | 0.00 | 0.13 | 0.00 | 79 | 1014.2 |
| 20260901150605 | 84 | 238 | 0.0 | 4.0 | 0.00 | 0.13 | 0.00 | 80 | 1014.2 |
| 20260901150405 | 83 | 189 | 0.0 | 4.0 | 0.00 | 0.13 | 0.00 | 80 | 1014.2 |
| 20260901150204 | 83 | 174 | 1.0 | 4.0 | 0.00 | 0.13 | 0.00 | 81 | 1014.2 |
| 20260901150004 | 83 | 78 | 1.0 | 4.0 | 0.00 | 0.13 | 0.00 | 81 | 1014.2 |
| 20260901145804 | 83 | 95 | 1.0 | 4.0 | 0.00 | 0.17 | 0.00 | 80 | 1014.2 |
| 20260901145604 | 83 | 133 | 0.0 | 2.0 | 0.00 | 0.17 | 0.00 | 80 | 1014.2 |
| 20260901145403 | 83 | 143 | 0.0 | 2.0 | 0.00 | 0.17 | 0.00 | 81 | 1014.2 |
| 20260901145203 | 82 | 154 | 0.0 | 2.0 | 0.00 | 0.17 | 0.00 | 81 | 1014.1 |
| 20260901145002 | 82 | 199 | 1.0 | 3.0 | 0.00 | 0.17 | 0.00 | 82 | 1014.1 |
| 20260901144802 | 82 | 250 | 1.0 | 3.0 | 0.00 | 0.17 | 0.00 | 83 | 1014.1 |
| 20260901144602 | 82 | 237 | 1.0 | 3.0 | 0.00 | 0.17 | 0.00 | 84 | 1014.1 |
| 20260901144401 | 81 | 76 | 1.0 | 4.0 | 0.00 | 0.17 | 0.00 | 84 | 1014.0 |
| 20260901144201 | 81 | 70 | 0.0 | 4.0 | 0.00 | 0.17 | 0.00 | 84 | 1014.1 |
| 20260901144001 | 80 | 88 | 1.0 | 4.0 | 0.00 | 0.17 | 0.00 | 84 | 1014.0 |
| 20260901143800 | 80 | 197 | 2.0 | 4.0 | 0.00 | 0.17 | 0.00 | 84 | 1014.0 |
| 20260901143600 | 80 | 225 | 2.0 | 4.0 | 0.00 | 0.17 | 0.00 | 84 | 1013.9 |
| 20260901143400 | 80 | 221 | 2.0 | 3.0 | 0.00 | 0.17 | 0.00 | 84 | 1013.8 |
| 20260901143200 | 80 | 239 | 0.0 | 3.0 | 0.00 | 0.17 | 0.00 | 85 | 1013.8 |
| 20260901142959 | 80 | 240 | 0.0 | 1.0 | 0.00 | 0.17 | 0.00 | 85 | 1013.7 |
| 20260901142759 | 80 | 240 | 0.0 | 1.0 | 0.00 | 0.17 | 0.00 | 85 | 1013.7 |
| 20260901142559 | 79 | 240 | 0.0 | 3.0 | 0.00 | 0.17 | 0.00 | 85 | 1013.8 |
| 20260901142358 | 79 | 240 | 0.0 | 3.0 | 0.00 | 0.17 | 0.00 | 85 | 1013.9 |
| 20260901142158 | 79 | 240 | 0.0 | 3.0 | 0.00 | 0.17 | 0.00 | 85 | 1014.0 |
| 20260901141958 | 79 | 240 | 0.0 | 3.0 | 0.00 | 0.17 | 0.00 | 86 | 1014.1 |
| 20260901141757 | 79 | 242 | 1.0 | 3.0 | 0.00 | 0.17 | 0.00 | 85 | 1014.1 |
| 20260901141557 | 79 | 246 | 0.0 | 2.0 | 0.00 | 0.17 | 0.00 | 85 | 1014.1 |
| 20260901141357 | 79 | 247 | 0.0 | 2.0 | 0.00 | 0.17 | 0.00 | 86 | 1014.0 |
| 20260901141156 | 79 | 247 | 0.0 | 2.0 | 0.00 | 0.17 | 0.00 | 86 | 1014.0 |
| 20260901140956 | 79 | 247 | 0.0 | 3.0 | 0.00 | 0.17 | 0.00 | 86 | 1014.0 |
| 20260901140756 | 79 | 190 | 1.0 | 3.0 | 0.00 | 0.17 | 0.00 | 86 | 1014.0 |
| 20260901140556 | 78 | 70 | 0.0 | 3.0 | 0.00 | 0.17 | 0.00 | 86 | 1014.0 |
| 20260901140355 | 78 | 63 | 0.0 | 3.0 | 0.00 | 0.17 | 0.00 | 85 | 1013.9 |
| 20260901140155 | 79 | 0 | 0.0 | 3.0 | 0.00 | 0.17 | 0.00 | 86 | 1013.8 |
| 20260901135955 | 78 | 37 | 0.0 | 3.0 | 0.00 | 0.17 | 0.00 | 86 | 1013.8 |
| 20260901135754 | 78 | 38 | 0.0 | 3.0 | 0.00 | 0.17 | 0.00 | 86 | 1013.7 |
| 20260901135554 | 78 | 37 | 0.0 | 3.0 | 0.00 | 0.17 | 0.00 | 86 | 1013.7 |
| 20260901135354 | 78 | 35 | 0.0 | 3.0 | 0.00 | 0.17 | 0.00 | 86 | 1013.7 |
| 20260901135153 | 78 | 36 | 0.0 | 1.0 | 0.00 | 0.17 | 0.00 | 86 | 1013.6 |
| 20260901134953 | 78 | 36 | 0.0 | 1.0 | 0.00 | 0.17 | 0.00 | 86 | 1013.6 |
| 20260901134753 | 78 | 36 | 0.0 | 1.0 | 0.00 | 0.17 | 0.00 | 87 | 1013.6 |
| 20260901134552 | 78 | 35 | 0.0 | 1.0 | 0.00 | 0.17 | 0.00 | 86 | 1013.7 |
| 20260901134352 | 78 | 36 | 0.0 | 2.0 | 0.00 | 0.17 | 0.00 | 87 | 1013.7 |
| 20260901134152 | 78 | 36 | 0.0 | 3.0 | 0.00 | 0.17 | 0.00 | 87 | 1013.7 |
| 20260901133951 | 78 | 36 | 0.0 | 3.0 | 0.00 | 0.17 | 0.00 | 86 | 1013.8 |
| 20260901133751 | 78 | 86 | 0.0 | 3.0 | 0.00 | 0.17 | 0.00 | 87 | 1013.9 |
| 20260901133551 | 78 | 132 | 0.0 | 3.0 | 0.00 | 0.17 | 0.00 | 87 | 1013.9 |
| 20260901133351 | 78 | 206 | 0.0 | 3.0 | 0.00 | 0.17 | 0.00 | 87 | 1013.9 |
| 20260901133150 | 78 | 259 | 0.0 | 2.0 | 0.00 | 0.17 | 0.00 | 87 | 1013.9 |
| 20260901132950 | 78 | 129 | 1.0 | 2.0 | 0.00 | 0.17 | 0.00 | 87 | 1013.9 |
| 20260901132750 | 78 | 109 | 0.0 | 2.0 | 0.00 | 0.17 | 0.00 | 87 | 1013.9 |
| 20260901132549 | 78 | 73 | 0.0 | 3.0 | 0.00 | 0.17 | 0.00 | 87 | 1013.9 |
| 20260901132349 | 78 | 105 | 0.0 | 4.0 | 0.00 | 0.17 | 0.00 | 87 | 1013.9 |
| 20260901132149 | 77 | 120 | 0.0 | 4.0 | 0.00 | 0.17 | 0.00 | 88 | 1013.9 |
| 20260901131948 | 77 | 96 | 1.0 | 4.0 | 0.00 | 0.17 | 0.00 | 87 | 1013.9 |
| 20260901131748 | 78 | 135 | 1.0 | 4.0 | 0.00 | 0.17 | 0.00 | 87 | 1013.9 |
| 20260901131548 | 78 | 151 | 1.0 | 4.0 | 0.00 | 0.17 | 0.00 | 87 | 1013.9 |
| 20260901131347 | 78 | 242 | 1.0 | 4.0 | 0.00 | 0.17 | 0.00 | 87 | 1013.9 |
| 20260901131147 | 78 | 205 | 1.0 | 4.0 | 0.00 | 0.17 | 0.00 | 87 | 1014.0 |
| 20260901130947 | 78 | 62 | 2.0 | 5.0 | 0.00 | 0.17 | 0.00 | 87 | 1014.0 |
| 20260901130746 | 78 | 177 | 1.0 | 6.0 | 0.00 | 0.17 | 0.00 | 87 | 1014.0 |
| 20260901130546 | 78 | 249 | 1.0 | 6.0 | 0.00 | 0.17 | 0.00 | 88 | 1014.0 |
| 20260901130346 | 77 | 247 | 1.0 | 6.0 | 0.00 | 0.17 | 0.00 | 88 | 1014.0 |
| 20260901130146 | 77 | 186 | 1.0 | 6.0 | 0.00 | 0.17 | 0.00 | 88 | 1014.0 |
| 20260901125945 | 77 | 38 | 1.0 | 4.0 | 0.00 | 0.17 | 0.00 | 89 | 1014.1 |
| 20260901125745 | 77 | 358 | 1.0 | 4.0 | 0.00 | 0.17 | 0.00 | 89 | 1014.1 |
| 20260901125545 | 77 | 7 | 1.0 | 4.0 | 0.00 | 0.17 | 0.00 | 89 | 1014.1 |
| 20260901125344 | 76 | 62 | 1.0 | 4.0 | 0.00 | 0.17 | 0.00 | 89 | 1014.1 |
| 20260901125144 | 76 | 169 | 1.0 | 4.0 | 0.00 | 0.17 | 0.00 | 90 | 1014.2 |
| 20260901124944 | 76 | 124 | 1.0 | 4.0 | 0.00 | 0.17 | 0.00 | 90 | 1014.2 |
| 20260901124743 | 76 | 245 | 1.0 | 4.0 | 0.00 | 0.17 | 0.00 | 90 | 1014.3 |
| 20260901124543 | 76 | 230 | 0.0 | 5.0 | 0.00 | 0.17 | 0.00 | 91 | 1014.3 |
| 20260901124343 | 75 | 197 | 1.0 | 6.0 | 0.00 | 0.17 | 0.00 | 92 | 1014.3 |
| 20260901124142 | 75 | 75 | 1.0 | 6.0 | 0.00 | 0.17 | 0.00 | 92 | 1014.3 |
| 20260901123942 | 75 | 81 | 1.0 | 6.0 | 0.00 | 0.17 | 0.00 | 92 | 1014.2 |
| 20260901123742 | 74 | 163 | 1.0 | 6.0 | 0.00 | 0.17 | 0.00 | 93 | 1014.3 |
| 20260901123542 | 74 | 208 | 1.0 | 6.0 | 0.00 | 0.17 | 0.00 | 93 | 1014.3 |
| 20260901123341 | 74 | 193 | 1.0 | 5.0 | 0.00 | 0.17 | 0.00 | 94 | 1014.2 |
| 20260901123141 | 73 | 127 | 2.0 | 5.0 | 0.00 | 0.17 | 0.00 | 94 | 1014.2 |
| 20260901122941 | 73 | 127 | 1.0 | 5.0 | 0.00 | 0.17 | 0.00 | 95 | 1014.2 |
| 20260901122740 | 73 | 146 | 1.0 | 5.0 | 0.00 | 0.17 | 0.00 | 95 | 1014.3 |
| 20260901122540 | 73 | 287 | 1.0 | 4.0 | 0.00 | 0.17 | 0.00 | 95 | 1014.3 |
| 20260901122340 | 73 | 275 | 0.0 | 4.0 | 0.00 | 0.17 | 0.00 | 96 | 1014.2 |
| 20260901122139 | 72 | 179 | 1.0 | 4.0 | 0.00 | 0.17 | 0.00 | 96 | 1014.2 |
| 20260901121939 | 72 | 231 | 1.0 | 4.0 | 0.00 | 0.17 | 0.00 | 96 | 1014.2 |
| 20260901121739 | 72 | 234 | 1.0 | 3.0 | 0.00 | 0.17 | 0.00 | 96 | 1014.2 |
| 20260901121538 | 72 | 234 | 0.0 | 3.0 | 0.00 | 0.17 | 0.00 | 96 | 1014.2 |
| 20260901121338 | 72 | 234 | 0.0 | 3.0 | 0.00 | 0.17 | 0.00 | 97 | 1014.2 |
| 20260901121138 | 72 | 270 | 1.0 | 3.0 | 0.00 | 0.17 | 0.00 | 97 | 1014.2 |
| 20260901120937 | 72 | 352 | 0.0 | 4.0 | 0.00 | 0.17 | 0.00 | 97 | 1014.2 |
| 20260901120737 | 72 | 357 | 0.0 | 4.0 | 0.00 | 0.17 | 0.00 | 97 | 1014.2 |
| 20260901120537 | 72 | 16 | 0.0 | 4.0 | 0.00 | 0.17 | 0.00 | 97 | 1014.1 |
| 20260901120337 | 72 | 189 | 1.0 | 4.0 | 0.00 | 0.17 | 0.00 | 97 | 1014.1 |
| 20260901120136 | 71 | 218 | 1.0 | 4.0 | 0.00 | 0.17 | 0.00 | 97 | 1014.1 |
| 20260901115936 | 71 | 226 | 1.0 | 3.0 | 0.00 | 0.17 | 0.00 | 97 | 1014.1 |
| 20260901115736 | 71 | 191 | 0.0 | 2.0 | 0.00 | 0.17 | 0.00 | 97 | 1013.9 |
| 20260901115535 | 71 | 126 | 0.0 | 3.0 | 0.00 | 0.17 | 0.00 | 97 | 1013.9 |
| 20260901115335 | 71 | 126 | 0.0 | 3.0 | 0.00 | 0.17 | 0.00 | 97 | 1014.0 |
| 20260901115135 | 71 | 126 | 0.0 | 3.0 | 0.00 | 0.17 | 0.00 | 97 | 1013.9 |
| 20260901114934 | 71 | 128 | 1.0 | 3.0 | 0.00 | 0.17 | 0.00 | 97 | 1014.0 |
| 20260901114734 | 71 | 214 | 0.0 | 3.0 | 0.00 | 0.17 | 0.00 | 97 | 1014.0 |
| 20260901114534 | 71 | 244 | 0.0 | 3.0 | 0.00 | 0.17 | 0.00 | 98 | 1014.0 |
| 20260901114333 | 71 | 242 | 1.0 | 3.0 | 0.00 | 0.17 | 0.00 | 98 | 1013.9 |
| 20260901114133 | 71 | 230 | 1.0 | 3.0 | 0.00 | 0.17 | 0.00 | 98 | 1013.9 |
| 20260901113933 | 71 | 204 | 0.0 | 3.0 | 0.00 | 0.17 | 0.00 | 98 | 1013.9 |
| 20260901113733 | 71 | 118 | 0.0 | 3.0 | 0.00 | 0.17 | 0.00 | 98 | 1013.9 |
| 20260901113532 | 71 | 122 | 0.0 | 3.0 | 0.00 | 0.17 | 0.00 | 98 | 1013.9 |
| 20260901113332 | 71 | 173 | 0.0 | 3.0 | 0.00 | 0.17 | 0.00 | 98 | 1013.9 |
| 20260901113132 | 71 | 194 | 0.0 | 3.0 | 0.00 | 0.17 | 0.00 | 98 | 1013.9 |
| 20260901112931 | 71 | 164 | 1.0 | 3.0 | 0.00 | 0.17 | 0.00 | 98 | 1013.8 |
| 20260901112731 | 71 | 0 | 0.0 | 3.0 | 0.00 | 0.17 | 0.00 | 98 | 1013.8 |
| 20260901112531 | 71 | 245 | 0.0 | 3.0 | 0.00 | 0.17 | 0.00 | 98 | 1013.8 |
| 20260901112330 | 71 | 254 | 1.0 | 3.0 | 0.00 | 0.17 | 0.00 | 98 | 1013.8 |
| 20260901112130 | 70 | 261 | 1.0 | 3.0 | 0.00 | 0.17 | 0.00 | 97 | 1013.8 |
| 20260901111930 | 70 | 261 | 0.0 | 2.0 | 0.00 | 0.17 | 0.00 | 97 | 1013.7 |
| 20260901111729 | 70 | 261 | 0.0 | 2.0 | 0.00 | 0.17 | 0.00 | 97 | 1013.8 |
| 20260901111529 | 70 | 261 | 0.0 | 2.0 | 0.00 | 0.17 | 0.00 | 97 | 1013.7 |
| 20260901111329 | 71 | 261 | 0.0 | 2.0 | 0.00 | 0.17 | 0.00 | 97 | 1013.7 |
| 20260901111128 | 71 | 0 | 0.0 | 2.0 | 0.00 | 0.17 | 0.00 | 97 | 1013.7 |
| 20260901110928 | 71 | 261 | 0.0 | 2.0 | 0.00 | 0.17 | 0.00 | 97 | 1013.7 |
| 20260901110728 | 71 | 262 | 0.0 | 2.0 | 0.00 | 0.17 | 0.00 | 97 | 1013.7 |
| 20260901110528 | 71 | 264 | 0.0 | 2.0 | 0.00 | 0.17 | 0.00 | 97 | 1013.7 |
| 20260901110327 | 71 | 267 | 0.0 | 2.0 | 0.00 | 0.17 | 0.00 | 97 | 1013.7 |
| 20260901110127 | 71 | 267 | 0.0 | 4.0 | 0.00 | 0.17 | 0.00 | 97 | 1013.6 |
| 20260901105927 | 71 | 266 | 0.0 | 4.0 | 0.00 | 0.17 | 0.00 | 97 | 1013.7 |
| 20260901105726 | 71 | 209 | 0.0 | 4.0 | 0.00 | 0.17 | 0.00 | 97 | 1013.6 |
| 20260901105526 | 71 | 253 | 1.0 | 4.0 | 0.00 | 0.17 | 0.00 | 97 | 1013.6 |
| 20260901105326 | 71 | 264 | 1.0 | 4.0 | 0.00 | 0.17 | 0.00 | 97 | 1013.6 |
| 20260901105125 | 71 | 272 | 0.0 | 1.0 | 0.00 | 0.17 | 0.00 | 97 | 1013.6 |
| 20260901104925 | 71 | 0 | 0.0 | 2.0 | 0.00 | 0.17 | 0.00 | 97 | 1013.6 |
| 20260901104725 | 71 | 272 | 0.0 | 3.0 | 0.00 | 0.17 | 0.00 | 97 | 1013.6 |
| 20260901104524 | 71 | 272 | 0.0 | 3.0 | 0.00 | 0.17 | 0.00 | 97 | 1013.6 |
| 20260901104324 | 71 | 168 | 0.0 | 3.0 | 0.00 | 0.17 | 0.00 | 97 | 1013.6 |
| 20260901104124 | 71 | 130 | 0.0 | 3.0 | 0.00 | 0.17 | 0.00 | 97 | 1013.5 |
| 20260901103924 | 71 | 117 | 0.0 | 3.0 | 0.00 | 0.17 | 0.00 | 97 | 1013.5 |
| 20260901103723 | 71 | 97 | 0.0 | 3.0 | 0.00 | 0.17 | 0.00 | 97 | 1013.5 |
| 20260901103523 | 71 | 0 | 0.0 | 2.0 | 0.00 | 0.17 | 0.00 | 97 | 1013.5 |
| 20260901103323 | 71 | 232 | 0.0 | 2.0 | 0.00 | 0.17 | 0.00 | 97 | 1013.5 |
| 20260901103122 | 71 | 231 | 0.0 | 2.0 | 0.00 | 0.17 | 0.00 | 97 | 1013.4 |
| 20260901102922 | 71 | 0 | 0.0 | 3.0 | 0.00 | 0.17 | 0.00 | 96 | 1013.4 |
| 20260901102722 | 71 | 0 | 0.0 | 3.0 | 0.00 | 0.17 | 0.00 | 96 | 1013.4 |
| 20260901102521 | 71 | 231 | 0.0 | 3.0 | 0.00 | 0.17 | 0.00 | 96 | 1013.4 |
| 20260901102321 | 71 | 231 | 0.0 | 3.0 | 0.00 | 0.17 | 0.00 | 96 | 1013.4 |
| 20260901102121 | 71 | 231 | 0.0 | 3.0 | 0.00 | 0.17 | 0.00 | 96 | 1013.3 |
| 20260901101920 | 71 | 231 | 0.0 | 3.0 | 0.00 | 0.17 | 0.00 | 96 | 1013.2 |
| 20260901101720 | 71 | 231 | 0.0 | 3.0 | 0.00 | 0.17 | 0.00 | 96 | 1013.2 |
| 20260901101520 | 71 | 231 | 1.0 | 3.0 | 0.00 | 0.17 | 0.00 | 96 | 1013.2 |
| 20260901101319 | 71 | 231 | 0.0 | 4.0 | 0.00 | 0.17 | 0.00 | 96 | 1013.2 |
| 20260901101119 | 71 | 231 | 1.0 | 4.0 | 0.00 | 0.17 | 0.00 | 96 | 1013.2 |
| 20260901100919 | 71 | 231 | 0.0 | 4.0 | 0.00 | 0.17 | 0.00 | 96 | 1013.2 |
| 20260901100719 | 71 | 280 | 0.0 | 4.0 | 0.00 | 0.17 | 0.00 | 96 | 1013.1 |
| 20260901100518 | 71 | 305 | 1.0 | 4.0 | 0.00 | 0.17 | 0.00 | 96 | 1013.3 |
| 20260901100318 | 71 | 247 | 1.0 | 4.0 | 0.00 | 0.17 | 0.00 | 96 | 1013.2 |
| 20260901100118 | 71 | 230 | 0.0 | 3.0 | 0.00 | 0.17 | 0.00 | 96 | 1013.2 |
| 20260901095917 | 71 | 230 | 0.0 | 3.0 | 0.00 | 0.18 | 0.00 | 96 | 1013.2 |
| 20260901095717 | 71 | 230 | 1.0 | 3.0 | 0.00 | 0.18 | 0.00 | 96 | 1013.3 |
| 20260901095517 | 71 | 222 | 0.0 | 3.0 | 0.00 | 0.18 | 0.00 | 96 | 1013.3 |
| 20260901095316 | 71 | 216 | 1.0 | 3.0 | 0.00 | 0.18 | 0.00 | 96 | 1013.3 |
| 20260901095116 | 71 | 216 | 1.0 | 3.0 | 0.00 | 0.18 | 0.00 | 96 | 1013.3 |
| 20260901094916 | 71 | 216 | 0.0 | 1.0 | 0.00 | 0.18 | 0.00 | 96 | 1013.3 |
| 20260901094715 | 71 | 216 | 0.0 | 1.0 | 0.00 | 0.18 | 0.00 | 96 | 1013.3 |
| 20260901094515 | 71 | 216 | 0.0 | 2.0 | 0.00 | 0.18 | 0.00 | 96 | 1013.2 |
| 20260901094315 | 71 | 216 | 0.0 | 2.0 | 0.00 | 0.18 | 0.00 | 96 | 1013.1 |
| 20260901094114 | 71 | 216 | 0.0 | 3.0 | 0.00 | 0.18 | 0.00 | 96 | 1013.1 |
| 20260901093914 | 71 | 216 | 0.0 | 3.0 | 0.00 | 0.18 | 0.00 | 96 | 1013.1 |
| 20260901093714 | 71 | 216 | 0.0 | 3.0 | 0.00 | 0.18 | 0.00 | 96 | 1013.0 |
| 20260901093514 | 71 | 216 | 0.0 | 3.0 | 0.00 | 0.18 | 0.00 | 96 | 1013.0 |
| 20260901093313 | 71 | 216 | 0.0 | 3.0 | 0.00 | 0.18 | 0.00 | 96 | 1013.0 |
| 20260901093113 | 71 | 216 | 0.0 | 4.0 | 0.00 | 0.18 | 0.00 | 96 | 1013.0 |
| 20260901092913 | 71 | 216 | 0.0 | 4.0 | 0.00 | 0.18 | 0.00 | 96 | 1012.9 |
| 20260901092712 | 71 | 216 | 1.0 | 4.0 | 0.00 | 0.18 | 0.00 | 96 | 1012.9 |
| 20260901092512 | 71 | 218 | 1.0 | 4.0 | 0.00 | 0.18 | 0.00 | 96 | 1012.9 |
| 20260901092312 | 71 | 228 | 1.0 | 4.0 | 0.00 | 0.18 | 0.00 | 96 | 1012.9 |
| 20260901092111 | 71 | 208 | 1.0 | 4.0 | 0.00 | 0.18 | 0.00 | 96 | 1012.8 |
| 20260901091911 | 71 | 140 | 1.0 | 4.0 | 0.00 | 0.18 | 0.00 | 96 | 1012.8 |
| 20260901091711 | 71 | 127 | 1.0 | 5.0 | 0.00 | 0.18 | 0.00 | 96 | 1012.9 |
| 20260901091510 | 71 | 144 | 1.0 | 5.0 | 0.00 | 0.18 | 0.00 | 96 | 1012.9 |
| 20260901091310 | 71 | 197 | 2.0 | 5.0 | 0.00 | 0.18 | 0.00 | 96 | 1012.9 |
| 20260901091110 | 71 | 209 | 2.0 | 5.0 | 0.00 | 0.18 | 0.00 | 96 | 1012.8 |
| 20260901090909 | 71 | 218 | 1.0 | 5.0 | 0.00 | 0.18 | 0.00 | 96 | 1012.8 |
| 20260901090709 | 71 | 220 | 1.0 | 5.0 | 0.00 | 0.18 | 0.00 | 96 | 1012.9 |
| 20260901090509 | 71 | 220 | 1.0 | 5.0 | 0.00 | 0.18 | 0.00 | 96 | 1012.9 |
| 20260901090309 | 71 | 229 | 1.0 | 5.0 | 0.00 | 0.18 | 0.00 | 96 | 1012.9 |
| 20260901090108 | 71 | 215 | 2.0 | 5.0 | 0.00 | 0.18 | 0.00 | 96 | 1012.9 |
| 20260901085908 | 71 | 203 | 2.0 | 5.0 | 0.00 | 0.22 | 0.00 | 96 | 1012.9 |
| 20260901085708 | 71 | 228 | 1.0 | 5.0 | 0.00 | 0.22 | 0.00 | 96 | 1012.9 |
| 20260901085507 | 71 | 224 | 1.0 | 4.0 | 0.00 | 0.22 | 0.00 | 96 | 1012.9 |
| 20260901085307 | 71 | 221 | 1.0 | 4.0 | 0.00 | 0.22 | 0.00 | 96 | 1012.9 |
| 20260901085107 | 71 | 188 | 2.0 | 4.0 | 0.00 | 0.22 | 0.00 | 96 | 1012.9 |
| 20260901084906 | 71 | 179 | 2.0 | 4.0 | 0.00 | 0.22 | 0.00 | 96 | 1012.9 |
| 20260901084706 | 71 | 176 | 2.0 | 4.0 | 0.00 | 0.22 | 0.00 | 96 | 1012.9 |
| 20260901084506 | 71 | 227 | 1.0 | 4.0 | 0.00 | 0.22 | 0.00 | 96 | 1012.8 |
| 20260901084305 | 71 | 220 | 1.0 | 4.0 | 0.00 | 0.22 | 0.00 | 96 | 1012.8 |
| 20260901084105 | 71 | 224 | 1.0 | 4.0 | 0.00 | 0.22 | 0.00 | 96 | 1012.8 |
| 20260901083905 | 71 | 230 | 1.0 | 4.0 | 0.00 | 0.22 | 0.00 | 96 | 1012.8 |
| 20260901083704 | 71 | 206 | 1.0 | 4.0 | 0.00 | 0.22 | 0.00 | 96 | 1012.8 |
| 20260901083504 | 71 | 210 | 1.0 | 4.0 | 0.00 | 0.22 | 0.00 | 96 | 1012.7 |
| 20260901083304 | 71 | 221 | 2.0 | 4.0 | 0.00 | 0.22 | 0.00 | 96 | 1012.7 |
| 20260901083104 | 71 | 258 | 1.0 | 4.0 | 0.00 | 0.22 | 0.00 | 96 | 1012.7 |
| 20260901082903 | 71 | 240 | 2.0 | 5.0 | 0.00 | 0.22 | 0.00 | 96 | 1012.7 |
| 20260901082703 | 71 | 213 | 1.0 | 5.0 | 0.00 | 0.22 | 0.00 | 96 | 1012.7 |
| 20260901082503 | 71 | 212 | 1.0 | 5.0 | 0.00 | 0.22 | 0.00 | 96 | 1012.7 |
| 20260901082306 | 71 | 241 | 1.0 | 5.0 | 0.00 | 0.22 | 0.00 | 96 | 1012.7 |
| 20260901082102 | 71 | 258 | 1.0 | 5.0 | 0.00 | 0.22 | 0.00 | 96 | 1012.7 |
| 20260901081902 | 71 | 241 | 2.0 | 4.0 | 0.00 | 0.22 | 0.00 | 96 | 1012.7 |
| 20260901081701 | 71 | 212 | 1.0 | 4.0 | 0.00 | 0.22 | 0.00 | 96 | 1012.6 |
| 20260901081501 | 71 | 220 | 1.0 | 4.0 | 0.00 | 0.22 | 0.00 | 96 | 1012.5 |
| 20260901081301 | 71 | 226 | 1.0 | 4.0 | 0.00 | 0.22 | 0.00 | 96 | 1012.5 |
| 20260901081100 | 72 | 228 | 2.0 | 4.0 | 0.00 | 0.22 | 0.00 | 96 | 1012.5 |
| 20260901080900 | 72 | 218 | 2.0 | 4.0 | 0.00 | 0.22 | 0.00 | 96 | 1012.4 |
| 20260901080700 | 72 | 265 | 1.0 | 4.0 | 0.00 | 0.22 | 0.00 | 96 | 1012.4 |
| 20260901080459 | 72 | 282 | 1.0 | 5.0 | 0.00 | 0.22 | 0.00 | 96 | 1012.5 |
| 20260901080259 | 72 | 272 | 1.0 | 5.0 | 0.00 | 0.22 | 0.00 | 96 | 1012.5 |
| 20260901080059 | 72 | 243 | 2.0 | 5.0 | 0.00 | 0.22 | 0.00 | 96 | 1012.6 |
| 20260901075858 | 72 | 236 | 2.0 | 5.0 | 0.00 | 0.27 | 0.00 | 96 | 1012.5 |
| 20260901075658 | 72 | 233 | 2.0 | 5.0 | 0.00 | 0.27 | 0.00 | 96 | 1012.5 |
| 20260901075458 | 72 | 241 | 2.0 | 5.0 | 0.00 | 0.27 | 0.00 | 96 | 1012.6 |
| 20260901075258 | 72 | 235 | 1.0 | 5.0 | 0.00 | 0.27 | 0.00 | 96 | 1012.6 |
| 20260901075057 | 72 | 234 | 2.0 | 3.0 | 0.00 | 0.27 | 0.00 | 96 | 1012.6 |
| 20260901074857 | 72 | 230 | 1.0 | 5.0 | 0.00 | 0.27 | 0.00 | 96 | 1012.6 |
| 20260901074657 | 72 | 230 | 1.0 | 5.0 | 0.00 | 0.27 | 0.00 | 96 | 1012.5 |
| 20260901074456 | 72 | 231 | 1.0 | 5.0 | 0.00 | 0.27 | 0.00 | 96 | 1012.6 |
| 20260901074256 | 72 | 239 | 1.0 | 5.0 | 0.00 | 0.27 | 0.00 | 96 | 1012.6 |
| 20260901074056 | 72 | 232 | 2.0 | 5.0 | 0.00 | 0.27 | 0.00 | 96 | 1012.6 |
| 20260901073855 | 72 | 186 | 2.0 | 5.0 | 0.00 | 0.27 | 0.00 | 96 | 1012.7 |
| 20260901073655 | 72 | 206 | 2.0 | 5.0 | 0.00 | 0.27 | 0.00 | 96 | 1012.7 |
| 20260901073455 | 72 | 237 | 2.0 | 5.0 | 0.00 | 0.27 | 0.00 | 96 | 1012.7 |
| 20260901073254 | 72 | 205 | 2.0 | 5.0 | 0.00 | 0.27 | 0.00 | 96 | 1012.7 |
| 20260901073054 | 72 | 192 | 1.0 | 5.0 | 0.00 | 0.27 | 0.00 | 97 | 1012.8 |
| 20260901072854 | 72 | 225 | 2.0 | 5.0 | 0.00 | 0.27 | 0.00 | 97 | 1012.9 |
| 20260901072654 | 72 | 214 | 2.0 | 4.0 | 0.00 | 0.27 | 0.00 | 97 | 1013.0 |
| 20260901072453 | 72 | 213 | 2.0 | 4.0 | 0.00 | 0.27 | 0.00 | 97 | 1013.0 |
| 20260901072253 | 72 | 224 | 2.0 | 4.0 | 0.00 | 0.27 | 0.00 | 97 | 1013.1 |
| 20260901072053 | 72 | 230 | 2.0 | 4.0 | 0.00 | 0.27 | 0.00 | 97 | 1013.0 |
| 20260901071852 | 72 | 232 | 2.0 | 4.0 | 0.00 | 0.27 | 0.00 | 97 | 1013.1 |
| 20260901071652 | 72 | 235 | 1.0 | 3.0 | 0.00 | 0.27 | 0.00 | 97 | 1013.1 |
| 20260901071452 | 72 | 235 | 0.0 | 3.0 | 0.00 | 0.27 | 0.00 | 97 | 1013.1 |
| 20260901071251 | 72 | 235 | 1.0 | 3.0 | 0.00 | 0.27 | 0.00 | 97 | 1013.1 |
| 20260901071051 | 72 | 0 | 0.0 | 3.0 | 0.00 | 0.27 | 0.00 | 97 | 1013.2 |
| 20260901070851 | 72 | 0 | 0.0 | 3.0 | 0.00 | 0.27 | 0.00 | 97 | 1013.2 |
| 20260901070650 | 72 | 0 | 0.0 | 3.0 | 0.00 | 0.27 | 0.00 | 97 | 1013.1 |
| 20260901070450 | 72 | 235 | 0.0 | 3.0 | 0.00 | 0.27 | 0.00 | 97 | 1013.2 |
| 20260901070250 | 72 | 235 | 1.0 | 3.0 | 0.00 | 0.27 | 0.00 | 97 | 1013.2 |
| 20260901070050 | 72 | 235 | 1.0 | 4.0 | 0.00 | 0.27 | 0.00 | 97 | 1013.1 |
| 20260901065849 | 72 | 235 | 0.0 | 5.0 | 0.00 | 0.29 | 0.00 | 97 | 1013.1 |
| 20260901065649 | 72 | 235 | 1.0 | 5.0 | 0.00 | 0.29 | 0.00 | 97 | 1013.1 |
| 20260901065449 | 72 | 232 | 2.0 | 5.0 | 0.00 | 0.29 | 0.00 | 97 | 1013.2 |
| 20260901065248 | 72 | 217 | 2.0 | 5.0 | 0.00 | 0.29 | 0.00 | 97 | 1013.1 |
| 20260901065048 | 72 | 218 | 2.0 | 5.0 | 0.00 | 0.29 | 0.00 | 97 | 1013.1 |
| 20260901064848 | 72 | 232 | 2.0 | 5.0 | 0.00 | 0.29 | 0.00 | 97 | 1013.2 |
| 20260901064648 | 72 | 228 | 1.0 | 5.0 | 0.00 | 0.29 | 0.00 | 98 | 1013.2 |
| 20260901064447 | 72 | 223 | 1.0 | 5.0 | 0.00 | 0.29 | 0.00 | 98 | 1013.3 |
| 20260901064247 | 71 | 223 | 3.0 | 5.0 | 0.00 | 0.29 | 0.00 | 98 | 1013.3 |
| 20260901064046 | 71 | 223 | 2.0 | 5.0 | 0.00 | 0.29 | 0.00 | 98 | 1013.3 |
| 20260901063846 | 71 | 234 | 2.0 | 5.0 | 0.00 | 0.29 | 0.00 | 98 | 1013.3 |
| 20260901063646 | 71 | 232 | 2.0 | 5.0 | 0.00 | 0.29 | 0.00 | 98 | 1013.3 |
| 20260901063445 | 71 | 230 | 2.0 | 5.0 | 0.00 | 0.29 | 0.00 | 98 | 1013.4 |
| 20260901063245 | 71 | 224 | 2.0 | 5.0 | 0.00 | 0.29 | 0.00 | 98 | 1013.4 |
| 20260901063045 | 71 | 207 | 2.0 | 6.0 | 0.00 | 0.29 | 0.00 | 98 | 1013.4 |
| 20260901062845 | 71 | 206 | 2.0 | 6.0 | 0.00 | 0.29 | 0.00 | 98 | 1013.4 |
| 20260901062644 | 71 | 217 | 2.0 | 6.0 | 0.00 | 0.29 | 0.00 | 98 | 1013.5 |
| 20260901062444 | 71 | 226 | 3.0 | 6.0 | 0.00 | 0.29 | 0.00 | 98 | 1013.4 |
| 20260901062244 | 71 | 207 | 3.0 | 7.0 | 0.00 | 0.29 | 0.00 | 98 | 1013.4 |
| 20260901062043 | 71 | 202 | 2.0 | 7.0 | 0.00 | 0.29 | 0.00 | 98 | 1013.4 |
| 20260901061843 | 71 | 219 | 2.0 | 7.0 | 0.00 | 0.29 | 0.00 | 98 | 1013.4 |
| 20260901061643 | 71 | 216 | 3.0 | 7.0 | 0.00 | 0.29 | 0.00 | 98 | 1013.4 |
| 20260901061442 | 71 | 213 | 3.0 | 7.0 | 0.00 | 0.29 | 0.00 | 98 | 1013.4 |
| 20260901061242 | 71 | 219 | 2.0 | 7.0 | 0.00 | 0.29 | 0.00 | 98 | 1013.4 |
| 20260901061042 | 71 | 214 | 2.0 | 6.0 | 0.00 | 0.29 | 0.00 | 98 | 1013.6 |
| 20260901060841 | 71 | 223 | 2.0 | 6.0 | 0.00 | 0.29 | 0.00 | 98 | 1013.6 |
| 20260901060641 | 71 | 229 | 3.0 | 6.0 | 0.00 | 0.29 | 0.00 | 98 | 1013.5 |
| 20260901060441 | 71 | 217 | 2.0 | 6.0 | 0.00 | 0.29 | 0.00 | 98 | 1013.6 |
| 20260901060240 | 71 | 215 | 2.0 | 5.0 | 0.00 | 0.29 | 0.00 | 98 | 1013.6 |
| 20260901060040 | 71 | 219 | 3.0 | 7.0 | 0.00 | 0.29 | 0.00 | 98 | 1013.7 |
| 20260901055840 | 71 | 213 | 2.0 | 7.0 | 0.00 | 0.29 | 0.00 | 98 | 1013.7 |
| 20260901055640 | 71 | 219 | 2.0 | 7.0 | 0.00 | 0.29 | 0.00 | 98 | 1013.8 |
| 20260901055439 | 71 | 226 | 3.0 | 7.0 | 0.00 | 0.29 | 0.00 | 98 | 1013.9 |
| 20260901055239 | 71 | 221 | 3.0 | 7.0 | 0.00 | 0.29 | 0.00 | 98 | 1013.9 |
| 20260901055039 | 71 | 224 | 2.0 | 7.0 | 0.00 | 0.29 | 0.00 | 98 | 1013.9 |
| 20260901054838 | 71 | 225 | 3.0 | 7.0 | 0.00 | 0.29 | 0.00 | 98 | 1014.0 |
| 20260901054638 | 71 | 240 | 2.0 | 7.0 | 0.00 | 0.29 | 0.00 | 98 | 1013.9 |
| 20260901054438 | 71 | 225 | 2.0 | 7.0 | 0.00 | 0.29 | 0.00 | 98 | 1013.9 |
| 20260901054237 | 71 | 226 | 3.0 | 7.0 | 0.00 | 0.29 | 0.00 | 98 | 1013.9 |
| 20260901054037 | 71 | 218 | 3.0 | 7.0 | 0.00 | 0.29 | 0.00 | 98 | 1014.1 |
| 20260901053837 | 71 | 199 | 3.0 | 6.0 | 0.00 | 0.29 | 0.00 | 98 | 1014.0 |
| 20260901053636 | 71 | 213 | 3.0 | 6.0 | 0.00 | 0.29 | 0.00 | 98 | 1014.1 |
| 20260901053436 | 71 | 215 | 3.0 | 6.0 | 0.00 | 0.29 | 0.00 | 98 | 1014.1 |
| 20260901053236 | 71 | 209 | 3.0 | 7.0 | 0.00 | 0.29 | 0.00 | 98 | 1014.0 |
| 20260901053035 | 71 | 223 | 2.0 | 7.0 | 0.00 | 0.29 | 0.00 | 98 | 1014.0 |
| 20260901052835 | 71 | 221 | 3.0 | 7.0 | 0.00 | 0.29 | 0.00 | 98 | 1013.9 |
| 20260901052635 | 71 | 215 | 4.0 | 7.0 | 0.00 | 0.29 | 0.00 | 98 | 1014.1 |
| 20260901052435 | 71 | 232 | 3.0 | 7.0 | 0.00 | 0.29 | 0.00 | 98 | 1014.1 |
| 20260901052234 | 71 | 226 | 3.0 | 7.0 | 0.00 | 0.29 | 0.00 | 98 | 1014.2 |
| 20260901052034 | 71 | 223 | 3.0 | 7.0 | 0.00 | 0.29 | 0.00 | 98 | 1014.2 |
| 20260901051834 | 71 | 225 | 3.0 | 6.0 | 0.00 | 0.29 | 0.00 | 98 | 1014.3 |
| 20260901051633 | 71 | 223 | 3.0 | 6.0 | 0.00 | 0.29 | 0.00 | 98 | 1014.3 |
| 20260901051433 | 71 | 219 | 2.0 | 6.0 | 0.00 | 0.29 | 0.00 | 98 | 1014.3 |
| 20260901051233 | 71 | 219 | 3.0 | 6.0 | 0.00 | 0.29 | 0.00 | 99 | 1014.2 |
| 20260901051032 | 71 | 217 | 4.0 | 6.0 | 0.00 | 0.29 | 0.00 | 99 | 1014.2 |
| 20260901050832 | 71 | 228 | 3.0 | 6.0 | 0.00 | 0.29 | 0.00 | 99 | 1014.3 |
| 20260901050632 | 71 | 230 | 2.0 | 6.0 | 0.00 | 0.29 | 0.00 | 99 | 1014.4 |
| 20260901050431 | 71 | 235 | 2.0 | 5.0 | 0.00 | 0.29 | 0.00 | 99 | 1014.4 |
| 20260901050231 | 71 | 229 | 3.0 | 5.0 | 0.00 | 0.29 | 0.00 | 99 | 1014.4 |
| 20260901050031 | 71 | 232 | 3.0 | 5.0 | 0.00 | 0.29 | 0.00 | 99 | 1014.4 |
| 20260901045831 | 71 | 235 | 2.0 | 6.0 | 0.00 | 0.29 | 0.00 | 99 | 1014.5 |
| 20260901045630 | 71 | 231 | 2.0 | 6.0 | 0.00 | 0.29 | 0.00 | 99 | 1014.4 |
| 20260901045430 | 71 | 229 | 2.0 | 6.0 | 0.00 | 0.29 | 0.00 | 99 | 1014.4 |
| 20260901045230 | 71 | 224 | 2.0 | 6.0 | 0.00 | 0.29 | 0.00 | 99 | 1014.4 |
| 20260901045029 | 71 | 191 | 2.0 | 6.0 | 0.00 | 0.29 | 0.00 | 99 | 1014.4 |
| 20260901044829 | 71 | 205 | 2.0 | 4.0 | 0.00 | 0.29 | 0.00 | 99 | 1014.5 |
| 20260901044629 | 71 | 224 | 2.0 | 4.0 | 0.00 | 0.29 | 0.00 | 99 | 1014.5 |
| 20260901044428 | 71 | 212 | 1.0 | 4.0 | 0.00 | 0.29 | 0.00 | 99 | 1014.5 |
| 20260901044228 | 71 | 207 | 1.0 | 4.0 | 0.00 | 0.29 | 0.00 | 99 | 1014.5 |
| 20260901044028 | 71 | 225 | 2.0 | 4.0 | 0.00 | 0.29 | 0.00 | 99 | 1014.5 |
| 20260901043827 | 71 | 218 | 1.0 | 3.0 | 0.00 | 0.29 | 0.00 | 99 | 1014.5 |
| 20260901043627 | 71 | 167 | 0.0 | 3.0 | 0.00 | 0.29 | 0.00 | 99 | 1014.5 |
| 20260901043427 | 71 | 0 | 0.0 | 0.0 | 0.00 | 0.29 | 0.00 | 99 | 1014.5 |
| 20260901043226 | 71 | 0 | 0.0 | 0.0 | 0.00 | 0.29 | 0.00 | 99 | 1014.6 |
| 20260901043026 | 71 | 0 | 0.0 | 0.0 | 0.00 | 0.29 | 0.00 | 99 | 1014.6 |
| 20260901042826 | 71 | 0 | 0.0 | 0.0 | 0.00 | 0.29 | 0.00 | 99 | 1014.6 |
| 20260901042626 | 71 | 0 | 0.0 | 0.0 | 0.00 | 0.29 | 0.00 | 99 | 1014.6 |
| 20260901042425 | 71 | 0 | 0.0 | 0.0 | 0.00 | 0.29 | 0.00 | 99 | 1014.7 |
| 20260901042225 | 71 | 0 | 0.0 | 0.0 | 0.00 | 0.29 | 0.00 | 99 | 1014.7 |
| 20260901042025 | 71 | 0 | 0.0 | 0.0 | 0.00 | 0.29 | 0.00 | 99 | 1014.7 |
| 20260901041824 | 71 | 0 | 0.0 | 0.0 | 0.00 | 0.29 | 0.00 | 99 | 1014.8 |
| 20260901041624 | 71 | 0 | 0.0 | 0.0 | 0.00 | 0.29 | 0.00 | 99 | 1014.8 |
| 20260901041424 | 71 | 0 | 0.0 | 0.0 | 0.00 | 0.29 | 0.00 | 99 | 1014.8 |
| 20260901041223 | 71 | 0 | 0.0 | 0.0 | 0.00 | 0.29 | 0.00 | 99 | 1014.8 |
| 20260901041023 | 71 | 0 | 0.0 | 0.0 | 0.00 | 0.29 | 0.00 | 99 | 1014.8 |
| 20260901040823 | 71 | 0 | 0.0 | 0.0 | 0.00 | 0.29 | 0.00 | 99 | 1014.9 |
| 20260901040622 | 71 | 0 | 0.0 | 0.0 | 0.00 | 0.29 | 0.00 | 99 | 1014.9 |
| 20260901040422 | 71 | 0 | 0.0 | 0.0 | 0.00 | 0.29 | 0.00 | 99 | 1014.8 |
| 20260901040222 | 71 | 0 | 0.0 | 0.0 | 0.00 | 0.29 | 0.00 | 99 | 1014.8 |
| 20260901040022 | 71 | 0 | 0.0 | 0.0 | 0.00 | 0.29 | 0.00 | 99 | 1014.8 |
| 20260901035821 | 71 | 0 | 0.0 | 0.0 | 0.00 | 0.31 | 0.29 | 99 | 1014.8 |
| 20260901035621 | 71 | 0 | 0.0 | 0.0 | 0.00 | 0.31 | 0.29 | 99 | 1014.9 |
| 20260901035421 | 71 | 0 | 0.0 | 1.0 | 0.00 | 0.31 | 0.29 | 99 | 1014.8 |
| 20260901035220 | 71 | 0 | 0.0 | 1.0 | 0.00 | 0.31 | 0.29 | 99 | 1014.9 |
| 20260901035020 | 71 | 0 | 0.0 | 1.0 | 0.00 | 0.31 | 0.29 | 99 | 1014.8 |
| 20260901034820 | 71 | 218 | 0.0 | 1.0 | 0.00 | 0.31 | 0.29 | 99 | 1014.9 |
| 20260901034619 | 71 | 218 | 0.0 | 1.0 | 0.00 | 0.31 | 0.29 | 99 | 1014.8 |
| 20260901034419 | 71 | 218 | 0.0 | 1.0 | 0.00 | 0.31 | 0.29 | 99 | 1014.8 |
| 20260901034219 | 71 | 218 | 0.0 | 1.0 | 0.00 | 0.31 | 0.29 | 99 | 1014.8 |
| 20260901034018 | 71 | 218 | 0.0 | 2.0 | 0.00 | 0.31 | 0.29 | 99 | 1014.9 |
| 20260901033818 | 71 | 218 | 0.0 | 2.0 | 0.00 | 0.31 | 0.29 | 99 | 1014.9 |
| 20260901033618 | 71 | 218 | 0.0 | 2.0 | 0.00 | 0.31 | 0.29 | 99 | 1014.8 |
| 20260901033417 | 71 | 218 | 0.0 | 3.0 | 0.00 | 0.31 | 0.29 | 99 | 1014.8 |
| 20260901033217 | 71 | 218 | 0.0 | 3.0 | 0.00 | 0.31 | 0.29 | 99 | 1014.8 |
| 20260901033017 | 71 | 218 | 1.0 | 3.0 | 0.00 | 0.31 | 0.29 | 99 | 1014.8 |
| 20260901032817 | 71 | 218 | 1.0 | 3.0 | 0.00 | 0.31 | 0.29 | 99 | 1014.9 |
| 20260901032616 | 71 | 218 | 1.0 | 3.0 | 0.00 | 0.31 | 0.29 | 99 | 1015.0 |
| 20260901032416 | 71 | 218 | 1.0 | 3.0 | 0.00 | 0.31 | 0.29 | 99 | 1014.9 |
| 20260901032216 | 71 | 218 | 1.0 | 3.0 | 0.00 | 0.31 | 0.29 | 99 | 1014.9 |
| 20260901032015 | 71 | 218 | 1.0 | 3.0 | 0.00 | 0.31 | 0.29 | 98 | 1014.9 |
| 20260901031815 | 71 | 218 | 1.0 | 3.0 | 0.00 | 0.31 | 0.29 | 98 | 1014.9 |
| 20260901031615 | 71 | 218 | 1.0 | 4.0 | 0.00 | 0.31 | 0.29 | 98 | 1014.9 |
| 20260901031414 | 71 | 217 | 1.0 | 4.0 | 0.00 | 0.31 | 0.29 | 98 | 1015.0 |
| 20260901031214 | 71 | 217 | 1.0 | 4.0 | 0.00 | 0.31 | 0.29 | 98 | 1014.9 |
| 20260901031014 | 71 | 230 | 1.0 | 4.0 | 0.00 | 0.31 | 0.29 | 98 | 1014.9 |
| 20260901030813 | 71 | 239 | 1.0 | 4.0 | 0.00 | 0.31 | 0.29 | 98 | 1015.0 |
| 20260901030613 | 71 | 239 | 1.0 | 4.0 | 0.00 | 0.31 | 0.29 | 98 | 1015.0 |
| 20260901030413 | 71 | 237 | 2.0 | 4.0 | 0.00 | 0.31 | 0.29 | 98 | 1015.0 |
| 20260901030213 | 71 | 227 | 1.0 | 4.0 | 0.00 | 0.31 | 0.29 | 98 | 1015.0 |
| 20260901030012 | 71 | 224 | 1.0 | 3.0 | 0.01 | 0.31 | 0.29 | 98 | 1015.1 |
| 20260901025812 | 71 | 199 | 1.0 | 3.0 | 0.01 | 0.42 | 0.29 | 98 | 1015.1 |
| 20260901025612 | 71 | 238 | 1.0 | 3.0 | 0.01 | 0.42 | 0.29 | 98 | 1015.2 |
| 20260901025411 | 71 | 260 | 1.0 | 2.0 | 0.01 | 0.42 | 0.29 | 98 | 1015.2 |
| 20260901025211 | 71 | 260 | 1.0 | 2.0 | 0.01 | 0.42 | 0.29 | 98 | 1015.2 |
| 20260901025011 | 71 | 260 | 1.0 | 2.0 | 0.01 | 0.42 | 0.29 | 98 | 1015.2 |
| 20260901024810 | 71 | 260 | 0.0 | 1.0 | 0.01 | 0.42 | 0.29 | 98 | 1015.3 |
| 20260901024610 | 71 | 260 | 0.0 | 1.0 | 0.01 | 0.42 | 0.29 | 98 | 1015.3 |
| 20260901024410 | 71 | 260 | 0.0 | 2.0 | 0.01 | 0.42 | 0.29 | 98 | 1015.2 |
| 20260901024209 | 71 | 260 | 0.0 | 2.0 | 0.01 | 0.42 | 0.29 | 98 | 1015.3 |